GFSGBSN_850_rhum_000.txt.gz
RH
93 82 91 82 88 58 46 46 49 60 62 66 59 67 72 64 72 70 66 67 68 76 72 70 72 80 96 100 86 65 86 90 65 56 86 89 74 64 69 62 56 60 53 48 44 44 46
97 87 95 86 83 82 58 50 49 67 62 65 69 73 71 64 62 62 63 61 64 75 71 64 68 84 96 97 70 55 71 84 96 84 74 76 70 59 57 57 59 53 50 48 48 44 42
97 94 77 79 75 85 56 48 46 58 73 65 78 90 89 82 74 63 63 60 58 71 78 73 74 87 99 80 62 59 57 58 85 91 70 70 68 58 53 58 52 50 54 51 43 39 42
96 99 88 75 60 82 63 48 42 48 80 84 71 86 91 94 93 83 71 74 66 57 69 76 80 83 98 82 58 66 78 58 66 85 70 76 70 62 58 50 47 50 45 59 44 36 34
97 96 97 77 73 70 83 77 44 45 55 70 64 72 83 93 97 98 84 78 83 72 61 81 92 94 88 77 65 60 72 79 82 82 79 81 74 70 58 60 53 46 57 56 48 35 37
97 93 95 92 68 72 71 77 47 48 50 56 79 71 82 93 98 99 94 88 88 85 82 88 96 97 78 87 71 58 51 88 94 82 96 99 81 79 79 79 87 65 55 52 54 37 38
93 98 94 96 77 77 48 63 46 47 52 54 61 81 95 98 90 96 99 100 95 86 90 90 82 83 78 72 75 64 50 81 95 78 93 94 92 95 82 70 61 59 52 61 45 36 36
96 97 98 97 96 59 48 42 44 44 49 51 57 82 97 100 99 99 99 99 72 68 94 74 91 90 66 86 88 67 58 84 89 75 78 94 90 69 72 70 62 48 50 52 50 39 38
97 97 97 97 97 88 56 45 43 43 48 52 56 74 98 100 99 100 98 87 74 76 85 94 79 89 89 77 82 78 65 76 84 63 83 78 82 62 68 67 63 53 57 56 58 46 41
95 95 95 96 94 97 89 57 46 44 48 54 59 62 99 100 99 98 100 98 90 78 100 96 87 77 79 83 82 68 65 68 76 67 74 86 75 75 69 80 69 88 51 45 45 49 59
91 90 90 90 91 94 98 87 55 48 48 55 63 65 92 100 90 99 97 99 93 99 96 77 82 65 63 84 71 83 44 62 87 74 75 86 88 91 79 70 69 72 46 48 44 50 48
86 86 88 90 90 93 94 98 70 58 48 51 57 62 85 99 88 98 96 99 98 100 95 93 79 79 83 74 72 77 76 70 66 69 64 67 64 74 80 68 58 50 48 44 52 53 67
89 85 88 89 90 89 90 95 99 84 58 59 60 63 70 82 98 92 98 100 99 99 86 93 84 75 75 83 80 78 81 89 83 91 88 66 82 58 57 55 45 49 49 77 65 70 72
88 87 89 88 89 88 91 92 100 100 66 64 62 60 66 85 100 85 95 94 100 98 84 71 80 72 84 71 80 75 88 94 86 60 71 86 95 57 39 60 69 58 55 69 71 74 63
85 88 90 94 90 90 93 91 98 100 84 70 55 52 82 82 100 91 94 100 99 78 76 80 76 78 90 72 87 87 86 88 75 57 65 81 77 37 33 35 54 56 54 46 61 60 72
84 90 93 99 99 90 92 94 96 100 89 58 60 71 89 88 100 97 96 99 95 69 71 67 81 78 97 81 92 93 91 73 73 56 47 56 57 43 34 28 30 43 42 53 63 66 70
86 89 92 98 99 94 94 97 96 100 72 56 85 83 98 100 100 99 99 95 85 65 64 67 80 86 77 84 89 91 88 76 58 54 45 46 50 54 39 44 43 39 45 52 55 63 64
89 89 95 98 98 98 95 98 95 100 69 58 80 88 100 99 99 94 94 94 66 72 79 75 64 64 70 77 78 88 88 69 52 62 63 50 60 60 49 45 40 36 41 45 62 57 63
90 89 95 98 100 99 99 99 97 100 79 52 76 100 100 100 99 99 95 86 73 79 84 82 67 60 54 66 81 78 88 65 60 60 64 59 65 82 68 55 54 47 44 43 52 56 64
90 88 94 98 100 100 100 99 98 100 89 50 82 89 100 100 100 88 94 88 92 94 93 72 64 61 57 68 71 85 87 62 59 57 52 46 63 62 72 54 60 62 52 48 46 62 60
92 87 96 97 100 100 100 98 95 97 91 54 76 66 71 94 91 75 72 89 95 93 81 63 66 57 63 76 77 84 69 64 53 54 52 50 56 50 47 54 55 55 55 54 51 46 53
92 83 94 97 99 99 100 95 93 95 84 55 67 68 69 72 58 60 64 80 75 64 68 67 78 67 57 65 62 81 69 65 62 51 49 52 55 42 40 41 36 43 48 57 51 51 43
94 85 88 98 99 100 99 96 93 94 80 62 59 61 57 66 59 55 60 65 61 56 59 63 64 64 58 53 50 55 52 54 55 50 51 44 46 48 51 44 40 38 42 64 54 47 51
97 95 86 100 100 96 96 97 94 94 84 57 57 64 56 57 57 54 52 53 60 52 60 55 46 56 46 45 40 38 45 52 53 56 44 44 45 47 50 49 45 33 47 40 49 50 49
96 100 88 99 100 92 94 99 94 93 88 53 58 64 47 64 64 53 55 61 54 54 58 54 49 56 43 39 56 73 54 41 56 60 56 46 53 67 59 59 47 52 53 61 53 65 57
91 99 99 99 100 87 97 100 98 93 95 55 65 63 51 64 61 48 54 50 60 58 53 50 52 46 39 60 54 85 82 64 52 57 50 55 58 52 88 76 62 46 47 43 48 69 62
94 100 99 94 100 90 100 100 100 95 97 75 67 74 64 56 62 48 52 53 49 59 65 49 44 42 49 74 77 79 69 58 58 59 56 62 68 64 75 73 66 48 48 42 58 58 66
100 99 100 94 100 97 100 100 100 95 97 90 77 78 76 57 71 63 56 49 54 53 58 48 52 50 68 70 76 83 77 71 69 66 61 56 73 77 83 75 70 52 53 56 60 60 51
100 100 99 97 89 99 100 100 99 94 98 96 89 82 72 56 76 68 65 60 57 59 48 57 64 62 55 83 82 85 83 80 74 74 70 62 60 66 68 69 61 57 54 50 49 51 54

GFSGBSN_850_rhum_003.txt.gz
RH
95 96 95 90 90 86 87 63 44 45 45 59 63 63 57 62 63 78 73 66 66 72 71 68 68 80 98 100 90 80 82 71 75 99 76 89 97 77 75 66 59 58 53 49 44 46 49
94 95 98 83 86 82 93 90 52 44 43 54 61 67 70 72 69 72 66 66 65 64 71 74 69 81 94 97 80 70 71 74 85 97 88 75 84 69 69 62 60 56 50 47 48 47 48
97 97 99 96 82 72 88 88 55 41 40 55 59 76 84 85 92 87 68 62 61 62 70 75 75 77 98 91 66 59 58 62 70 93 95 72 80 65 58 63 56 54 60 55 52 46 44
98 95 96 99 85 93 72 85 82 42 40 50 70 86 81 84 93 96 91 80 82 59 63 78 86 92 94 89 71 62 65 64 62 63 80 80 89 73 58 55 56 60 53 71 54 39 37
97 96 95 97 96 82 81 69 92 68 42 42 49 66 62 63 72 91 99 90 76 82 78 77 89 91 93 74 64 56 62 78 69 63 74 77 91 81 62 62 61 59 81 68 60 44 44
95 96 95 95 95 95 75 62 79 65 42 46 51 80 75 82 91 87 98 100 85 98 96 84 91 92 83 90 77 70 58 66 86 89 99 90 100 87 75 76 91 70 66 55 55 42 42
98 96 96 96 94 96 78 68 58 58 42 46 50 72 73 84 97 99 99 100 99 100 98 79 84 71 81 76 80 71 63 65 89 97 86 89 89 95 76 71 61 55 53 52 56 40 39
94 95 95 95 94 95 94 64 48 38 40 43 45 51 72 72 94 100 99 100 87 79 89 78 80 88 76 84 91 78 65 71 92 87 72 81 92 74 71 72 61 59 59 59 51 42 40
92 92 93 92 89 89 94 95 64 42 39 44 46 55 72 74 97 98 98 94 96 85 87 93 75 96 88 77 86 75 75 70 81 67 73 79 79 61 68 82 74 63 63 60 60 49 43
89 88 88 88 90 87 90 93 92 61 44 44 47 57 83 89 92 100 99 99 98 97 100 90 95 78 85 75 81 70 73 69 74 64 62 85 73 69 73 76 72 84 51 52 50 58 65
88 89 87 92 88 89 89 92 97 95 60 50 49 56 73 84 96 95 96 100 100 96 97 82 88 72 73 67 67 79 66 66 79 63 64 89 84 76 82 74 68 75 60 59 51 53 50
87 86 84 91 90 87 94 92 96 99 96 64 55 54 77 83 94 89 97 100 96 99 96 98 84 90 86 76 63 78 76 68 67 59 55 89 72 74 69 66 64 49 57 62 52 50 61
85 84 83 84 90 92 90 95 92 99 98 98 67 69 94 89 98 97 99 97 100 98 91 98 94 85 75 86 77 77 78 81 94 89 82 89 86 84 84 65 55 51 71 98 96 74 64
83 85 90 90 89 90 91 94 98 94 96 100 86 87 98 97 96 100 93 97 99 83 87 73 78 78 79 74 84 77 78 88 86 78 71 97 99 73 77 80 73 74 72 78 76 69 59
90 84 86 87 90 92 94 94 99 92 98 100 92 78 99 98 97 99 95 100 89 84 78 78 77 81 77 71 80 82 82 74 78 85 64 79 84 52 56 51 58 78 80 48 62 63 68
87 90 93 85 90 91 94 93 100 92 100 99 80 100 98 100 100 100 98 99 93 87 70 62 75 70 80 76 98 78 83 60 76 72 61 69 69 52 35 40 35 56 46 74 59 66 71
82 89 96 84 89 93 94 92 100 90 100 90 86 100 99 100 100 96 100 97 90 83 56 62 75 92 67 86 95 87 78 78 76 70 60 52 58 58 39 44 48 52 75 57 53 61 64
86 90 94 84 89 93 95 92 96 94 99 76 88 94 100 100 98 92 96 88 81 68 64 72 70 74 83 73 82 80 86 75 70 61 58 47 60 66 49 48 40 40 48 49 57 60 63
92 89 92 88 89 95 97 95 96 97 100 82 87 99 100 100 98 96 91 91 87 78 76 78 70 63 69 80 92 81 80 64 66 60 64 54 65 77 62 54 57 49 42 44 52 54 62
97 88 89 91 89 97 98 98 99 98 99 87 92 98 100 100 99 99 96 92 91 81 81 80 62 58 66 75 72 90 83 69 64 55 50 45 63 69 71 63 61 64 53 49 44 57 58
100 93 89 95 87 96 97 100 100 99 100 89 84 88 94 97 97 96 94 90 91 91 92 87 77 63 62 84 86 89 87 66 61 61 54 48 57 52 50 51 52 54 54 51 50 43 47
100 97 94 92 86 96 98 99 100 100 100 95 85 78 79 75 65 98 92 98 89 94 93 83 73 62 61 74 75 89 77 69 64 53 56 54 56 45 45 48 48 56 55 51 48 50 50
99 100 96 94 84 95 99 99 100 100 100 79 69 66 66 63 60 64 72 90 92 86 87 64 63 57 63 58 56 59 53 54 55 54 55 57 50 53 57 44 40 45 46 60 51 54 44
99 100 97 100 84 95 100 100 100 100 100 90 68 70 65 60 61 56 55 77 87 65 76 54 52 52 50 51 46 45 47 48 46 54 44 60 62 55 55 46 53 40 48 49 52 46 43
99 100 96 100 95 95 100 100 100 100 100 100 64 75 62 58 59 55 59 69 66 62 59 58 58 52 48 44 71 70 62 49 56 59 53 49 50 62 60 56 46 55 55 57 51 55 60
98 100 100 100 98 95 100 100 100 100 100 100 63 72 69 60 59 50 56 51 63 74 51 58 60 50 48 60 68 88 97 65 60 56 47 54 51 52 87 64 47 42 47 45 49 57 63
98 99 100 100 99 95 100 100 100 100 100 100 70 73 77 57 58 49 55 54 49 56 62 54 52 54 55 64 66 77 66 54 61 62 58 60 64 62 72 66 61 50 49 45 57 49 62
98 98 100 100 100 94 100 99 98 100 100 100 88 78 86 61 71 63 53 49 55 45 54 48 50 49 78 74 73 76 70 68 66 57 56 57 68 69 78 71 56 50 51 54 57 62 53
98 96 100 100 95 96 100 99 99 100 100 100 99 86 90 63 77 72 64 58 56 53 40 55 57 58 51 79 84 88 80 78 73 68 67 55 50 61 61 62 66 60 55 54 53 49 52

GFSGBSN_850_rhum_006.txt.gz
RH
93 90 88 94 85 92 84 92 88 55 43 43 59 57 49 47 57 52 51 56 57 74 79 75 64 74 88 99 87 83 77 73 63 96 99 74 90 73 67 57 48 49 37 41 39 41 41
93 91 93 93 96 89 77 88 92 79 45 40 58 61 65 69 74 73 58 57 64 62 69 68 69 73 97 90 83 72 68 66 72 90 97 78 81 65 50 51 51 45 43 40 38 41 41
92 94 89 92 96 91 85 78 89 76 47 38 54 61 65 74 76 83 76 69 56 62 64 74 83 81 99 82 69 58 59 66 58 74 85 81 78 83 55 55 54 46 49 42 40 42 39
98 92 94 91 92 94 94 81 71 87 81 38 43 85 70 71 79 84 81 81 78 63 62 82 91 89 86 80 68 72 66 70 71 69 80 81 85 99 97 53 53 55 51 53 36 40 39
92 92 93 94 90 90 91 85 83 73 91 56 43 72 64 74 74 72 72 88 94 73 77 81 92 97 78 78 79 64 71 72 81 69 70 84 93 97 80 73 67 58 61 53 41 38 37
89 87 93 93 91 90 93 93 75 57 81 58 43 54 85 78 77 87 88 84 96 93 98 97 87 91 81 79 80 80 73 68 74 79 82 89 90 96 85 80 82 63 56 44 46 36 35
87 88 89 93 93 94 94 93 78 52 67 54 42 54 64 70 79 87 99 90 100 100 100 90 80 66 75 75 76 84 74 74 78 82 85 69 91 95 70 73 48 38 43 48 39 33 38
88 88 86 89 90 89 90 91 92 66 41 36 41 49 58 70 80 80 100 100 91 88 98 92 88 77 79 85 79 77 83 68 72 84 83 68 93 67 76 62 57 44 48 48 35 36 36
90 89 86 88 89 90 89 88 90 91 58 39 42 48 55 75 76 84 99 100 97 97 95 95 94 89 80 83 74 71 80 63 63 80 89 80 77 61 82 62 60 50 50 42 42 43 41
91 88 88 84 89 91 89 84 85 91 85 53 47 49 74 88 89 96 100 97 97 99 100 90 94 88 90 78 73 66 73 58 64 80 88 59 58 81 75 70 58 57 43 45 51 63 57
85 88 86 87 86 94 89 88 87 92 99 85 63 53 81 81 97 98 93 98 100 98 95 67 85 79 76 66 55 68 76 58 63 80 83 77 81 89 84 68 48 49 47 49 54 60 55
84 88 86 83 88 91 95 90 96 91 99 100 97 73 61 80 88 98 100 96 98 96 92 94 86 87 81 68 55 70 78 61 64 69 65 52 88 80 56 54 50 48 49 52 46 52 64
96 87 84 81 82 88 93 92 92 94 97 100 100 100 83 81 96 94 100 98 100 97 85 99 98 94 76 68 56 66 74 74 94 98 99 81 90 90 55 80 63 50 61 98 92 83 60
100 92 85 82 85 94 93 90 90 95 99 97 100 100 98 98 93 98 100 98 99 84 95 84 86 91 84 61 56 70 65 64 72 86 66 99 99 96 63 63 81 62 53 53 63 59 46
100 97 88 87 89 95 90 92 95 96 99 96 100 100 99 97 97 99 98 100 84 92 86 95 76 90 68 60 55 78 58 55 70 76 76 96 99 80 67 60 55 85 81 39 44 46 44
99 100 90 90 91 93 87 91 96 94 98 98 99 98 98 98 98 100 99 99 95 84 84 60 59 54 59 57 90 81 55 40 58 63 61 63 96 70 67 68 63 64 51 69 50 58 54
96 100 94 94 92 95 87 89 93 97 97 100 98 99 95 100 100 98 100 99 90 81 74 46 48 52 48 53 85 61 52 49 46 51 57 53 54 74 60 75 76 65 83 66 44 43 42
97 100 99 96 97 95 88 89 93 100 99 100 92 98 100 99 97 92 98 93 88 85 76 39 40 40 39 48 69 86 51 57 37 52 64 57 40 85 65 46 43 47 52 50 56 53 43
84 96 100 98 99 96 90 90 93 100 100 96 92 99 100 99 97 96 86 89 86 84 65 45 54 46 40 49 74 73 57 40 46 57 56 43 44 63 75 58 46 56 48 49 38 37 43
94 93 100 100 100 97 91 90 94 100 100 99 92 95 100 100 97 96 94 91 93 75 56 55 54 53 54 54 45 57 60 59 62 51 55 43 44 38 51 47 42 53 46 47 48 50 41
99 94 99 100 98 100 93 91 94 99 100 100 78 82 80 91 95 96 95 89 88 89 73 79 61 56 46 61 70 65 56 70 58 62 58 52 47 44 44 42 39 42 48 43 46 42 43
98 95 98 100 100 99 92 92 95 100 100 100 76 80 90 75 83 90 96 94 90 93 83 88 92 56 49 55 58 70 70 64 68 63 58 49 53 40 44 48 41 42 40 44 44 40 35
95 97 98 100 100 99 94 93 96 100 100 98 86 69 75 56 57 80 88 92 89 84 95 90 74 57 57 54 46 52 55 50 50 57 61 52 47 46 49 41 42 52 42 41 38 33 32
88 100 98 99 100 100 94 97 98 99 100 99 76 76 73 53 54 58 72 90 96 87 91 76 57 54 50 50 52 52 55 50 46 45 44 52 48 49 57 43 64 36 39 32 36 32 30
97 98 98 97 100 100 96 99 98 100 100 100 99 80 80 59 47 52 74 91 80 75 71 55 62 56 49 47 51 59 58 78 60 52 48 45 78 78 59 79 38 36 44 39 43 39 35
92 99 98 98 100 100 99 99 98 100 100 100 99 92 81 58 46 54 56 83 91 80 57 58 61 51 49 50 60 85 95 81 87 71 51 63 82 86 78 57 49 37 42 38 34 32 38
91 96 98 97 100 100 100 100 99 99 100 100 100 88 85 66 61 52 48 70 84 81 62 55 58 60 75 67 69 78 68 50 69 74 85 64 60 86 60 71 40 38 41 45 39 39 50
94 95 99 98 100 100 100 99 98 98 100 100 99 87 86 73 66 60 57 52 66 70 70 53 63 64 89 81 66 69 67 48 47 44 52 60 55 54 65 87 85 47 49 44 48 56 53
96 94 98 100 100 100 100 99 98 99 100 100 100 94 90 99 76 75 67 58 54 45 66 58 67 56 77 84 67 66 60 59 46 49 54 46 42 44 42 45 59 59 53 51 54 53 54

GFSGBSN_850_rhum_009.txt.gz
RH
97 92 87 89 89 92 90 92 79 86 72 41 41 63 60 50 59 66 59 54 54 50 64 85 77 68 84 97 79 72 74 70 76 95 91 72 54 56 64 47 49 45 34 32 33 30 32
94 95 88 86 87 92 91 84 70 84 85 56 41 54 61 63 70 75 75 64 61 58 54 71 69 69 93 76 66 73 74 76 71 75 90 80 57 48 46 46 45 43 38 36 32 33 32
97 97 85 87 87 88 93 94 80 75 85 66 40 41 58 63 78 88 84 79 66 50 55 57 81 86 90 70 63 68 69 66 64 62 65 76 66 53 49 55 41 42 44 37 34 32 30
93 98 90 86 85 89 87 92 94 80 67 82 65 40 65 80 80 83 86 86 82 65 50 58 75 98 97 73 72 72 69 65 62 61 61 63 68 60 65 74 60 44 50 64 37 32 31
91 92 89 89 87 84 89 88 91 90 79 73 85 50 45 78 74 83 72 75 90 90 69 69 84 99 77 74 76 66 66 60 56 64 60 60 69 70 73 96 85 65 66 59 45 29 32
85 88 89 90 91 87 85 87 91 91 77 65 87 60 44 67 71 79 81 96 90 99 89 96 96 90 72 70 66 70 69 67 59 59 59 59 73 78 77 84 91 68 68 45 50 31 33
86 78 90 88 90 88 88 85 89 90 85 56 75 62 44 57 74 87 93 94 98 99 100 93 82 62 60 61 71 77 67 70 64 57 66 59 84 87 67 60 69 51 57 45 38 29 32
91 79 85 85 90 92 87 85 86 89 93 65 60 46 44 60 68 84 98 99 95 90 98 96 81 78 67 75 68 72 67 64 58 65 53 71 90 56 46 57 64 59 50 43 35 32 34
97 77 87 86 89 91 88 86 83 84 91 90 52 43 46 59 72 83 98 78 99 98 98 98 94 87 70 79 65 59 67 61 48 58 56 76 72 49 46 66 76 63 65 44 43 36 34
100 87 84 88 88 89 88 89 89 80 89 95 72 48 50 68 84 85 99 90 100 100 100 88 97 97 90 95 88 68 64 58 51 56 52 66 58 71 50 67 79 72 54 37 40 46 51
100 100 93 88 90 88 88 94 91 85 88 96 97 64 55 69 94 99 96 96 98 99 96 66 95 93 95 93 54 54 54 61 59 56 87 78 74 81 63 71 71 72 46 40 45 46 59
95 100 99 94 84 83 89 94 94 88 94 97 100 99 70 84 84 99 88 100 100 98 92 89 86 92 86 95 63 52 52 56 52 55 88 60 65 67 58 63 81 63 52 55 50 50 62
87 98 99 98 90 80 88 92 94 91 91 97 100 100 99 90 89 95 98 100 99 97 80 98 98 94 90 94 73 58 65 72 90 98 99 87 95 84 75 94 92 72 77 92 79 76 52
87 95 98 100 97 86 80 89 92 90 90 98 100 100 98 95 97 98 100 98 98 68 84 91 95 96 100 82 63 54 65 73 64 78 98 99 97 90 72 92 92 83 76 56 63 57 44
87 89 99 100 99 93 82 94 96 91 92 99 100 100 100 98 99 98 98 100 90 83 89 95 95 100 100 91 43 47 58 66 53 70 100 87 91 76 84 72 65 81 77 39 41 34 37
79 92 96 98 100 98 97 95 93 91 96 100 99 100 98 100 98 100 99 95 95 78 90 86 69 59 69 69 51 54 66 55 49 51 73 91 98 88 92 75 83 70 41 56 40 50 46
98 97 91 98 100 97 99 98 92 89 96 100 100 99 97 94 100 100 97 96 91 82 85 82 49 46 40 45 47 56 54 37 39 41 71 92 95 94 92 82 87 90 68 54 36 37 38
97 100 94 98 100 100 100 99 90 89 97 100 100 96 99 98 98 93 96 95 86 84 92 65 33 34 33 34 48 53 46 35 30 41 91 79 93 100 74 46 50 63 62 45 45 48 37
97 99 96 86 94 100 100 98 88 91 99 99 92 84 100 98 98 97 79 93 89 89 83 56 42 33 28 34 47 53 48 32 37 36 74 55 67 100 94 61 64 74 50 47 42 36 39
93 98 99 91 95 100 100 97 86 92 100 100 79 97 100 100 92 90 94 94 95 80 71 47 41 32 36 39 35 49 52 39 42 36 52 49 48 49 49 45 59 73 61 45 44 46 40
98 97 98 96 98 100 100 98 86 92 100 100 84 87 80 96 94 92 92 88 95 93 73 50 61 42 43 41 41 50 47 47 42 41 47 55 50 37 31 33 40 45 52 52 51 44 43
99 98 95 100 95 100 100 97 88 94 100 100 77 60 88 85 75 80 92 92 95 86 70 74 86 48 39 39 35 41 44 46 56 54 48 50 57 41 43 40 35 40 39 42 44 42 39
98 99 99 98 99 96 100 100 90 96 100 99 96 85 74 54 59 71 76 84 86 81 88 62 73 60 48 36 33 40 37 44 45 48 60 59 62 46 48 40 43 50 37 37 38 35 34
97 100 97 98 98 100 100 100 93 96 97 99 98 84 67 56 42 47 62 83 92 89 85 80 92 88 50 47 45 47 50 54 47 47 43 56 56 49 60 42 64 34 32 30 33 33 31
98 100 97 98 97 99 100 100 97 95 95 100 99 78 71 58 40 41 54 81 88 93 90 84 84 74 57 47 56 78 84 84 64 59 52 55 61 66 67 68 49 39 34 34 36 36 28
99 99 97 98 100 100 100 100 100 98 98 100 99 100 88 66 42 45 58 85 92 90 86 79 67 58 51 58 67 91 100 96 92 82 73 64 62 75 72 59 62 35 35 30 29 41 24
100 99 98 98 98 98 100 100 99 100 99 100 100 100 97 69 54 53 47 78 96 77 65 59 57 59 67 81 74 70 70 62 88 96 95 97 96 96 96 87 48 33 34 33 38 41 36
100 97 96 96 99 96 100 98 100 98 99 100 98 100 98 75 71 63 64 68 97 87 58 63 65 69 92 80 70 65 54 49 55 61 78 82 89 94 96 92 82 37 42 40 46 45 39
99 98 94 96 97 96 100 100 100 97 100 100 100 99 94 97 96 76 71 60 78 87 66 61 71 64 79 91 62 59 62 46 42 59 44 65 44 44 45 52 48 42 48 50 47 46 45

GFSGBSN_850_rhum_012.txt.gz
RH
85 80 84 92 89 85 86 89 90 89 80 85 67 40 48 58 51 57 62 60 54 60 59 70 80 67 64 91 72 72 61 60 71 77 94 82 69 54 62 51 50 51 44 38 34 33 31
78 76 82 88 88 88 85 87 90 84 76 88 87 52 42 58 63 70 75 76 69 63 66 70 81 77 78 79 63 66 72 58 70 70 85 86 72 56 47 48 55 48 47 47 39 32 31
76 62 65 91 87 88 88 86 89 90 87 78 84 69 43 52 63 77 79 78 78 76 67 68 67 76 96 72 58 61 63 71 69 63 61 72 69 76 48 47 48 46 55 46 44 36 34
86 73 56 75 89 85 86 87 88 89 88 83 67 84 59 48 67 77 78 74 80 85 77 70 69 93 91 80 66 66 64 65 58 60 59 58 63 66 70 58 64 65 56 76 47 39 35
93 87 70 66 86 86 89 87 91 86 85 90 80 74 90 50 74 81 83 71 80 76 97 80 72 92 75 70 75 65 67 63 58 55 58 56 57 66 68 71 87 75 78 72 63 40 37
100 93 87 78 82 82 85 88 89 88 88 89 82 71 91 59 71 80 79 78 81 87 91 97 94 87 70 64 69 72 67 64 60 53 55 58 56 75 78 80 91 77 84 58 67 48 41
97 100 95 87 75 87 88 88 89 90 86 88 87 59 80 63 71 84 93 96 84 96 98 84 79 60 57 64 63 66 66 64 64 59 64 55 76 86 77 70 66 61 58 67 46 43 43
96 97 99 96 75 87 85 86 91 89 83 84 90 66 79 60 70 81 89 98 88 92 96 97 85 80 59 70 62 64 64 63 63 73 57 69 84 59 54 57 64 62 74 76 51 42 42
84 98 95 99 91 83 84 90 85 86 88 85 86 81 52 57 71 80 84 87 88 88 99 99 92 88 77 73 67 58 66 64 59 68 64 76 65 56 51 54 64 63 67 78 71 46 49
98 86 100 100 100 93 84 87 90 86 88 88 90 88 50 63 78 74 92 95 98 99 100 92 96 96 88 93 87 66 63 61 58 63 58 64 51 52 59 59 55 67 54 64 74 82 73
91 97 72 88 100 100 95 87 90 88 91 90 95 98 56 55 91 94 91 96 93 100 98 80 92 93 94 95 77 75 71 78 66 58 56 78 67 58 64 76 54 65 55 67 70 81 80
89 97 84 68 97 100 100 96 86 91 95 94 98 100 77 75 87 96 93 88 96 99 94 89 91 93 92 91 88 82 73 79 65 64 58 71 54 58 60 55 66 53 68 84 79 76 90
97 94 96 82 90 99 100 99 88 90 97 94 100 98 98 93 90 88 84 98 99 99 68 96 97 85 81 93 93 90 81 77 80 94 86 92 87 66 76 86 61 66 88 96 100 99 92
88 96 94 88 90 100 100 99 97 86 97 96 98 99 100 95 98 94 95 94 99 57 75 90 94 94 100 92 96 94 95 76 62 74 85 86 84 87 80 86 75 81 92 100 97 98 57
96 94 98 92 82 98 100 96 92 90 96 95 97 100 100 99 99 100 92 99 79 66 87 96 97 100 97 94 94 95 81 78 61 58 98 97 95 80 69 63 74 80 99 84 83 40 51
98 98 99 92 99 100 99 100 93 93 99 98 99 100 98 100 100 100 98 94 76 75 87 92 99 79 74 85 90 74 69 51 57 51 60 93 100 82 82 76 82 86 75 98 83 58 68
99 98 97 97 99 98 97 100 100 99 99 100 99 100 98 100 100 100 98 91 72 74 88 95 84 60 53 60 60 52 46 43 48 50 77 93 98 96 81 95 90 97 97 82 66 58 56
99 97 97 99 99 93 98 100 100 100 100 100 100 98 98 100 99 97 97 81 89 88 91 88 86 82 40 43 52 54 57 56 40 49 86 90 97 100 99 74 74 77 82 59 56 60 55
95 98 99 99 100 95 99 99 99 99 98 98 97 97 100 99 98 97 84 88 93 92 88 90 71 44 30 34 44 41 53 40 54 64 78 94 99 100 99 94 94 92 77 57 56 51 56
92 95 98 100 99 95 97 100 100 98 93 93 92 98 100 100 94 87 89 96 97 90 88 82 58 40 36 36 33 53 47 45 41 54 62 86 81 99 98 73 82 89 72 57 59 62 49
93 94 99 98 99 99 100 99 100 100 97 100 86 88 85 98 96 94 90 91 96 96 87 76 53 46 38 43 38 40 50 43 45 37 60 83 93 88 61 62 62 64 65 61 60 55 51
92 96 98 99 97 99 97 96 96 100 100 100 96 80 91 85 73 81 90 92 95 91 93 76 70 61 60 44 38 44 43 48 48 51 47 52 76 65 49 43 50 63 60 58 54 48 47
88 94 98 99 99 98 95 99 99 100 100 100 94 82 75 69 81 88 84 86 87 88 86 81 67 58 67 41 33 27 30 36 43 54 62 62 72 64 58 43 45 54 48 54 54 49 48
87 93 99 98 99 97 99 98 99 100 99 97 98 89 82 85 52 62 59 64 83 88 89 83 75 65 65 46 43 54 58 54 54 50 50 68 71 66 63 47 71 40 34 35 41 40 40
88 92 100 98 97 97 96 98 100 99 100 97 99 97 93 87 58 51 42 66 89 93 96 90 88 78 71 59 67 84 88 84 73 62 69 52 65 78 75 75 54 44 35 37 43 43 35
88 95 100 95 91 93 92 98 100 99 100 100 100 99 90 85 61 53 51 72 91 96 95 92 85 87 82 65 82 94 89 97 97 87 70 71 78 90 92 78 76 42 36 31 34 53 41
88 98 99 97 97 93 94 97 100 98 100 100 99 100 100 96 75 57 56 66 90 92 93 84 82 86 86 90 81 89 91 80 98 95 95 91 93 96 90 91 75 38 36 31 49 51 42
88 99 99 97 98 94 96 98 100 100 99 100 98 100 99 91 76 72 71 62 97 93 84 78 87 87 95 92 92 83 68 72 84 78 87 83 97 96 97 99 93 38 42 46 52 42 38
87 94 99 98 97 92 97 99 100 100 98 100 100 99 100 99 97 86 82 72 63 94 80 71 82 68 81 90 92 69 65 52 61 91 69 84 75 78 79 75 50 42 51 46 46 43 45

GFSGBSN_850_rhum_018.txt.gz
RH
100 100 100 99 95 75 58 74 84 87 90 85 90 81 83 56 46 65 53 62 63 58 54 53 59 75 64 80 70 67 65 63 65 86 90 88 81 81 76 68 66 77 69 62 62 60 56
100 98 99 99 100 96 78 60 83 84 87 86 87 90 82 85 48 61 62 68 71 68 59 58 60 74 80 92 48 57 69 68 67 78 82 92 85 76 78 72 69 60 59 62 58 57 54
98 98 99 94 98 99 95 80 71 86 87 84 84 90 85 78 66 48 66 72 77 78 70 64 63 65 91 72 58 57 51 60 67 70 67 81 81 88 81 74 67 62 76 67 60 57 58
98 99 99 99 99 100 100 94 72 80 84 85 81 85 90 79 74 47 63 80 82 83 80 81 67 69 68 46 53 64 65 62 68 72 68 66 69 80 72 74 70 76 76 88 57 56 54
100 100 99 99 98 99 98 100 93 72 79 83 82 82 90 87 81 56 74 76 86 74 82 89 87 67 69 55 55 49 63 67 69 71 68 64 59 60 65 85 87 86 96 83 75 53 56
92 98 100 100 100 97 99 100 100 91 76 82 83 78 84 88 78 68 78 87 92 87 82 91 98 96 77 60 54 53 62 67 63 60 59 59 60 78 89 89 92 77 91 80 75 65 61
96 100 100 100 99 99 98 99 99 99 82 77 86 87 87 91 82 81 77 100 97 96 95 95 88 77 60 63 64 61 63 68 69 67 77 64 86 87 80 81 80 83 78 84 73 60 72
88 96 95 100 100 98 96 97 98 100 89 87 86 86 92 98 82 88 71 93 83 82 94 80 80 87 70 72 72 64 66 73 73 87 76 78 88 63 64 69 81 84 92 89 70 58 63
81 78 98 99 99 99 98 93 88 96 100 89 89 81 90 92 88 88 70 88 82 83 94 87 83 98 92 79 78 72 71 72 75 84 76 77 64 59 67 75 84 83 89 83 83 66 59
83 82 82 99 100 100 99 99 96 81 100 98 94 86 94 94 99 74 87 92 80 81 92 86 92 90 89 88 81 75 67 66 72 83 75 74 65 67 70 78 76 91 70 72 73 79 87
88 82 91 100 98 98 100 99 97 83 85 99 92 99 99 93 67 63 61 78 74 96 83 70 88 92 96 84 80 80 73 69 88 84 80 86 83 80 79 70 63 77 60 66 71 81 86
89 88 90 95 98 99 97 99 99 96 80 98 100 100 100 100 58 57 66 75 99 92 90 93 86 90 90 92 83 85 80 76 96 88 76 73 66 65 63 55 60 66 68 68 74 75 96
85 92 89 94 98 100 95 89 99 98 90 100 100 100 100 87 56 64 86 98 96 94 60 96 89 89 79 82 82 81 85 96 99 99 98 98 95 76 69 70 62 65 78 91 98 97 83
91 82 89 90 95 99 98 84 89 87 93 98 100 100 100 88 74 82 97 89 90 64 81 73 76 76 87 72 91 80 93 96 87 99 100 97 98 96 73 71 78 76 74 89 91 99 72
89 88 88 89 85 95 90 98 87 91 92 100 100 100 100 90 89 96 88 99 83 68 78 77 81 92 94 86 81 87 90 90 65 91 96 97 95 72 70 60 60 86 94 61 79 80 89
93 89 92 88 88 96 99 100 98 94 94 98 100 100 99 100 88 96 96 96 75 76 84 80 88 91 88 79 88 93 86 69 72 84 72 83 97 74 75 68 68 75 62 91 95 98 96
90 91 90 88 87 90 98 100 100 98 91 96 99 98 100 100 92 99 99 97 74 81 76 85 90 95 86 87 80 80 79 72 75 75 81 79 85 91 87 96 76 85 94 75 66 75 99
91 90 88 86 86 90 98 98 99 99 90 96 100 100 100 100 98 97 100 80 66 82 78 81 84 92 93 87 93 93 86 65 62 59 88 69 89 96 86 61 64 74 71 72 80 76 70
93 87 89 86 83 94 98 100 98 97 97 100 96 98 100 98 98 98 88 79 77 84 82 90 94 87 75 84 84 78 64 48 58 58 66 75 100 97 95 88 90 98 82 68 65 89 94
95 88 89 84 85 98 97 100 98 98 100 100 92 98 100 100 90 93 86 86 88 81 77 86 89 81 84 83 65 61 62 56 61 62 81 88 100 98 90 100 87 99 80 72 70 73 72
95 91 88 88 91 98 96 99 99 100 100 100 94 95 89 94 97 85 84 81 88 94 90 90 95 93 90 88 67 67 56 59 65 78 88 94 100 100 97 94 97 73 70 73 82 79 88
96 90 87 88 93 100 95 98 99 100 96 93 96 95 83 83 86 90 88 92 85 85 89 95 97 81 86 92 55 50 55 58 71 86 90 95 98 100 99 89 94 88 72 77 76 89 93
95 88 87 86 96 98 91 98 98 99 98 100 94 82 72 86 85 94 96 89 86 76 84 82 86 90 89 80 63 53 54 45 60 78 93 97 100 100 100 89 88 97 78 75 75 79 88
95 88 90 86 98 98 88 96 98 99 100 100 86 77 80 94 88 86 82 88 89 84 86 88 91 94 72 70 68 70 66 63 56 68 65 86 84 80 94 90 80 48 69 71 81 80 79
94 92 88 88 92 100 96 98 100 99 99 100 83 74 78 94 79 80 84 86 77 86 85 82 94 86 78 76 84 80 84 84 76 75 70 64 73 90 93 90 62 45 45 66 73 66 55
92 94 88 90 87 99 94 98 98 97 100 100 87 76 77 86 84 70 74 66 91 90 91 92 95 97 86 81 94 96 98 88 91 86 71 79 74 84 96 92 75 49 39 36 38 58 45
93 82 90 89 89 98 93 90 97 99 100 100 93 100 89 89 78 74 76 66 86 86 93 96 97 99 95 95 92 99 92 76 93 84 95 93 88 92 89 93 83 58 42 38 52 50 47
94 91 92 88 93 95 90 90 98 99 100 100 99 98 98 92 83 80 75 70 80 85 93 92 100 99 99 97 94 91 91 94 85 77 88 85 93 93 91 95 91 49 38 39 46 54 59
94 87 89 88 86 94 85 91 91 98 99 100 100 92 100 99 95 89 82 82 81 77 85 95 95 92 88 93 92 88 97 92 84 92 76 89 80 90 85 82 61 50 47 50 45 52 61

GFSGBSN_850_rhum_021.txt.gz
RH
95 87 100 99 100 99 100 97 69 68 80 85 84 85 87 81 75 94 72 62 63 62 58 54 50 57 57 73 72 65 62 62 74 92 92 95 84 81 79 73 70 80 75 66 61 62 65
99 98 99 100 100 99 98 97 98 72 78 81 85 90 81 86 84 72 92 64 71 74 65 57 56 73 80 88 44 59 67 71 77 94 96 95 92 77 86 78 73 66 64 64 59 57 60
100 99 99 100 100 98 100 98 99 99 75 80 81 79 78 81 85 79 89 75 80 80 76 65 59 65 88 63 56 47 69 70 75 77 80 81 88 86 85 82 75 70 80 70 64 58 63
96 95 100 99 99 99 98 98 99 100 99 76 82 79 86 92 86 74 55 72 85 91 86 80 68 71 66 47 52 64 57 61 62 73 72 68 79 89 94 74 72 76 80 92 58 62 58
90 94 97 100 99 97 99 98 97 98 100 98 80 75 77 84 95 76 60 66 87 86 77 82 86 77 72 58 53 48 63 67 66 69 75 70 66 62 65 83 84 85 92 86 73 58 59
85 82 83 98 100 96 96 97 92 95 99 100 88 77 83 77 95 79 63 78 90 93 81 92 99 91 73 61 57 53 56 65 66 69 69 64 63 77 82 89 85 82 98 87 80 62 63
88 82 95 79 99 100 99 98 97 92 98 100 99 82 90 78 84 86 65 100 100 96 96 91 87 79 63 68 64 64 57 66 69 66 77 68 87 92 76 86 85 91 92 88 75 62 72
83 82 92 85 85 99 100 98 99 97 98 98 100 89 96 92 93 90 73 97 83 81 93 82 88 90 73 74 73 66 68 69 76 90 79 81 95 75 66 72 78 85 89 86 75 66 67
84 82 83 88 85 95 98 100 100 98 95 83 96 99 96 96 99 99 93 72 89 85 87 76 86 97 94 80 81 73 71 72 80 93 91 89 67 60 66 74 81 86 91 76 81 69 66
88 87 91 84 89 96 98 95 99 99 87 91 89 100 100 99 100 100 100 83 81 82 95 78 94 88 88 83 81 73 68 67 73 88 84 86 66 64 70 78 78 85 72 74 77 85 89
93 92 88 89 88 96 98 99 99 99 98 93 90 98 100 100 97 99 80 74 84 83 86 71 91 94 95 85 78 81 74 70 75 83 87 88 91 76 79 73 69 73 62 76 81 90 93
92 92 93 89 84 86 97 95 95 94 88 94 98 93 99 100 95 78 80 63 87 89 93 87 90 88 91 89 82 82 79 76 87 84 78 76 70 73 74 61 63 64 72 77 76 86 93
89 90 92 85 92 95 95 100 93 85 88 68 100 92 100 89 88 71 63 87 97 96 63 93 80 87 81 85 83 83 90 93 93 99 96 98 96 80 74 78 64 71 88 97 97 95 83
93 93 93 87 91 95 94 94 86 97 96 59 88 89 98 94 91 71 70 91 88 67 89 72 81 87 91 78 79 80 86 90 85 98 100 98 98 97 81 79 79 83 87 94 90 93 82
95 96 92 88 93 92 97 90 98 100 96 92 90 85 99 100 86 71 84 99 83 67 79 77 70 89 88 74 77 88 88 76 72 86 94 96 94 90 83 68 79 100 98 72 85 84 95
94 95 92 89 89 90 95 90 100 99 99 97 98 99 100 100 79 94 89 86 76 76 75 69 87 77 78 80 88 86 77 74 78 68 66 81 97 79 80 70 80 90 68 96 99 96 94
94 95 92 90 90 89 97 88 100 100 99 99 100 99 99 99 83 98 98 93 78 80 74 82 84 84 72 82 82 83 72 69 73 78 74 77 90 86 94 95 87 91 95 92 74 85 91
95 95 94 91 84 87 98 94 99 99 100 97 97 100 100 100 97 95 100 86 67 90 80 80 78 74 86 80 83 85 93 74 67 83 88 73 92 96 79 69 62 64 69 77 88 84 73
95 93 94 91 85 84 97 90 99 100 100 98 99 96 100 99 99 99 92 81 77 90 82 82 83 78 73 83 89 89 79 57 68 75 88 78 99 96 98 82 83 99 74 64 68 81 72
95 89 82 92 85 87 99 90 88 98 100 99 98 100 99 98 90 81 86 84 88 76 80 83 89 82 87 85 77 78 77 55 55 60 60 68 100 98 89 96 88 97 89 80 78 88 72
94 90 83 92 82 94 98 91 91 90 99 99 92 97 95 97 97 78 75 78 83 94 83 81 92 90 94 93 76 91 72 60 67 64 81 93 100 100 96 95 99 97 78 78 93 74 72
94 90 86 88 85 94 98 96 96 93 99 99 95 94 82 86 89 84 84 95 85 80 90 96 97 86 87 94 69 61 61 61 73 87 88 96 99 100 96 91 96 100 96 80 76 65 59
94 90 91 88 89 88 98 94 98 98 100 100 100 83 75 86 86 89 90 85 83 74 81 74 87 94 86 84 76 70 71 61 57 78 94 99 100 100 100 95 98 100 86 76 69 64 65
92 91 88 90 91 91 98 93 96 100 100 100 98 96 83 91 83 80 81 73 88 83 88 84 84 94 78 80 74 78 77 79 69 75 75 96 99 99 100 99 97 85 81 56 58 66 73
93 92 86 88 89 90 99 87 97 100 100 100 100 93 76 92 77 78 79 86 85 84 89 85 84 83 87 93 92 89 86 76 84 76 86 77 82 96 99 97 69 55 93 88 89 86 82
90 81 91 86 89 90 98 87 98 99 99 98 100 93 75 88 85 74 76 87 92 93 90 90 95 87 99 89 94 88 97 80 78 85 82 83 80 93 92 94 82 50 49 66 68 91 65
92 91 85 76 89 88 97 82 94 98 99 99 99 89 77 80 78 69 75 77 82 84 90 94 92 99 99 96 94 98 92 81 90 76 97 93 92 96 88 87 84 60 49 52 79 55 48
96 87 86 80 85 90 92 77 91 98 100 100 94 97 89 84 86 79 76 75 89 81 92 91 98 99 99 98 96 95 88 88 90 79 78 83 81 88 85 94 89 51 42 46 49 56 59
99 95 80 77 80 83 88 92 95 97 99 100 100 93 93 92 90 84 78 76 74 80 80 94 90 97 94 94 94 92 93 94 89 93 82 91 78 83 78 80 61 52 51 53 51 56 62

GFSGBSN_850_rhum_024.txt.gz
RH
99 100 96 98 99 100 98 85 94 99 100 70 74 78 94 83 84 82 66 70 65 63 61 58 61 77 59 80 79 68 64 66 70 86 98 99 86 76 79 76 74 83 80 69 65 62 63
95 99 99 100 100 100 100 100 99 96 94 99 87 76 84 96 84 83 77 81 65 70 70 65 63 84 83 78 45 48 68 68 79 96 100 99 93 81 81 82 74 70 71 69 63 59 59
90 91 91 89 100 99 98 99 98 100 99 98 98 88 79 88 93 78 82 75 76 77 77 71 66 72 89 61 55 55 72 76 83 98 98 98 96 86 85 86 78 76 82 76 70 62 63
90 91 89 92 93 94 98 99 100 98 99 99 100 91 84 80 90 87 82 72 77 84 85 83 85 83 69 54 50 60 62 73 76 86 72 70 83 89 95 83 71 77 80 92 65 63 59
90 88 87 90 92 87 87 97 97 96 93 97 99 100 89 90 88 95 88 68 70 88 93 77 92 88 77 64 55 49 65 60 65 64 74 74 68 68 73 85 85 77 88 86 70 56 64
84 82 86 87 90 93 93 90 91 86 81 93 86 100 96 86 94 92 88 68 79 99 84 84 99 96 73 65 59 54 52 66 69 69 74 75 67 77 82 90 92 78 86 78 72 62 69
87 81 82 88 85 83 82 88 93 97 87 97 83 97 100 88 98 98 93 91 99 99 94 76 83 79 68 70 66 64 61 63 67 67 83 71 87 95 82 82 78 91 90 90 70 59 72
91 91 93 91 94 91 94 96 99 90 82 99 84 85 99 98 98 100 91 86 84 75 90 80 81 95 78 79 75 69 66 68 76 86 77 82 96 73 70 70 76 79 87 83 65 58 74
92 88 92 90 87 85 88 94 95 86 91 87 86 82 94 96 99 100 91 69 78 81 79 76 80 91 91 85 84 75 74 71 80 93 92 90 67 65 72 78 79 77 87 84 80 67 64
91 91 89 97 88 89 86 92 92 83 91 86 93 86 94 100 100 99 99 87 83 75 92 73 96 90 90 84 77 75 67 69 79 93 90 90 70 73 77 81 80 90 72 76 82 89 88
90 93 92 92 88 93 90 91 94 100 100 97 83 89 80 99 100 100 93 92 76 65 86 72 91 96 92 75 78 84 74 70 78 82 84 82 89 92 90 73 73 75 65 78 83 91 94
97 96 95 87 94 89 91 99 94 98 93 92 82 76 77 84 100 94 82 92 71 85 95 91 90 90 92 85 77 81 81 76 84 77 78 73 72 74 74 63 65 65 75 78 81 88 94
99 96 95 90 93 91 91 92 94 91 89 88 98 62 70 94 99 97 85 78 93 94 66 87 85 80 74 83 79 81 87 95 95 100 97 94 88 80 75 83 72 75 100 97 98 97 86
100 98 95 92 88 96 93 89 95 92 100 95 92 57 63 78 99 99 79 79 91 69 87 74 78 78 83 76 76 77 86 93 83 97 100 99 92 86 85 75 80 83 86 94 93 94 82
93 92 95 93 92 94 85 92 98 100 98 93 93 84 98 82 100 91 71 85 78 71 76 82 82 94 97 76 73 81 86 88 62 79 98 99 94 86 75 74 65 98 98 73 94 95 97
99 94 95 94 93 94 85 97 98 100 100 99 99 95 76 94 98 95 77 85 74 68 73 70 85 77 85 84 85 90 77 71 70 63 70 78 96 80 82 80 77 92 78 98 98 96 94
99 95 94 92 90 91 87 99 98 99 99 98 99 94 97 99 98 95 93 83 78 78 68 76 78 85 72 77 81 84 76 65 76 78 74 71 90 87 92 96 86 98 100 100 95 96 86
93 93 87 89 90 91 93 95 95 90 99 100 99 100 99 100 98 97 94 83 75 88 80 79 73 75 79 73 79 79 83 72 66 78 86 70 95 96 81 67 65 68 78 80 88 87 85
93 90 92 80 91 89 94 93 91 92 98 100 99 95 100 90 99 99 90 85 80 90 82 79 84 74 72 87 96 81 82 64 69 81 83 74 98 98 91 85 81 100 87 69 66 80 86
78 82 88 85 92 86 89 98 96 97 99 100 95 99 99 99 94 87 84 82 95 77 75 72 77 78 87 96 89 87 86 64 72 74 70 67 98 95 92 83 96 98 94 98 91 94 72
78 79 92 85 90 88 87 97 99 97 100 99 97 100 98 100 98 77 71 80 86 93 78 78 86 84 94 99 99 96 84 75 69 66 70 84 99 94 95 92 100 100 96 100 98 78 83
81 79 88 78 91 88 92 95 98 99 100 99 93 94 98 91 85 77 81 87 79 86 86 85 93 78 90 98 79 77 82 73 65 84 88 92 97 98 97 86 96 98 97 96 88 77 73
83 79 85 77 84 90 91 98 96 100 98 98 95 96 84 88 80 93 82 87 74 76 84 75 80 91 96 89 84 79 67 64 72 74 89 98 100 100 93 99 95 100 91 90 88 72 69
79 80 76 90 86 90 92 98 98 100 100 100 100 100 85 98 89 78 82 81 86 77 81 83 80 89 82 80 84 85 82 86 84 81 69 95 100 100 99 100 98 91 82 70 75 66 64
91 85 78 81 78 92 93 100 98 98 100 100 100 100 85 93 76 75 84 78 78 86 93 86 80 81 82 94 96 91 85 85 84 89 79 73 88 100 100 98 94 62 90 73 78 75 60
96 98 84 70 80 78 77 95 88 97 98 100 100 93 94 88 80 68 76 88 94 96 97 92 96 89 90 94 95 90 89 84 77 82 85 89 87 98 100 98 93 58 56 69 70 95 73
76 82 88 79 80 89 91 89 86 94 100 100 100 97 88 84 82 77 81 87 79 86 88 93 89 96 98 97 100 93 88 81 89 91 97 98 97 96 96 87 81 62 56 68 87 63 56
84 88 98 78 77 85 85 84 96 89 99 100 96 100 88 83 81 77 71 77 88 79 93 90 95 98 98 99 96 89 91 91 91 82 88 90 88 90 84 93 88 53 55 60 55 54 58
76 82 87 78 78 82 86 75 98 89 98 100 100 100 93 82 84 78 77 75 74 73 76 87 86 89 90 96 93 94 95 91 89 92 82 90 74 81 77 77 59 56 52 50 55 59 63

GFSGBSN_850_rhum_027.txt.gz
RH
92 92 93 92 92 94 100 100 100 100 99 96 100 89 86 82 96 85 84 78 60 61 62 60 58 60 51 74 84 70 71 67 78 94 97 96 85 73 75 77 76 83 77 72 68 65 63
93 93 92 92 91 99 88 96 99 99 98 99 100 100 90 87 88 98 81 82 62 63 68 65 62 71 73 72 48 58 70 68 72 92 97 90 89 77 76 79 73 72 73 72 66 64 60
90 91 89 89 92 89 91 98 99 98 99 99 98 99 100 98 85 99 87 80 71 71 75 72 67 68 76 57 55 56 61 70 82 96 86 88 94 80 82 87 81 78 83 72 71 67 64
90 87 86 87 90 92 83 87 89 97 100 96 99 98 100 100 90 95 97 83 77 75 81 82 88 86 68 57 51 54 65 82 93 97 90 85 92 90 87 86 74 81 80 79 62 61 63
84 87 90 86 93 91 92 91 86 84 91 96 98 80 94 99 94 92 100 92 70 73 94 87 91 94 76 69 62 53 61 72 76 86 75 72 76 74 85 88 83 84 87 89 67 58 61
92 89 86 92 92 93 93 90 89 92 99 81 96 85 82 92 100 97 100 98 74 91 99 82 93 95 73 70 61 57 60 65 64 64 70 76 70 80 78 90 88 82 86 72 71 58 65
96 94 87 88 95 92 91 82 80 95 90 81 85 85 73 77 100 100 100 100 93 99 97 74 79 79 72 74 69 68 57 68 68 72 88 72 80 88 82 81 75 87 91 80 70 60 65
93 96 96 91 92 89 93 90 89 90 92 80 87 88 84 80 94 98 100 89 67 58 94 80 78 88 83 79 76 77 68 69 71 86 77 83 91 66 57 70 74 77 83 81 60 54 61
98 100 95 92 95 93 92 89 91 92 79 81 88 96 85 79 89 99 100 89 74 60 70 73 81 90 84 79 83 77 70 74 81 91 88 88 70 67 73 77 75 82 88 71 63 64 61
96 97 96 98 95 96 94 89 92 88 86 91 99 86 87 88 76 96 100 94 74 71 85 67 91 88 89 86 76 72 70 66 81 90 90 91 70 74 83 83 78 88 70 70 76 84 78
95 100 98 98 94 96 96 93 95 92 96 90 98 91 99 91 97 98 96 96 72 58 74 71 95 96 93 77 69 85 77 70 84 85 86 82 84 93 82 72 74 77 65 73 76 88 83
92 99 98 99 94 96 95 97 91 90 96 94 94 78 95 94 82 88 100 91 72 80 85 92 90 93 94 80 77 84 81 75 77 74 78 76 71 74 78 71 66 65 77 78 81 89 95
97 96 99 94 94 97 92 97 88 97 96 100 99 89 92 100 97 82 100 97 96 85 67 95 88 87 77 84 82 78 89 94 95 99 95 81 86 75 70 76 72 72 100 94 97 98 82
97 99 98 97 94 95 93 93 90 98 99 98 96 93 94 73 56 100 100 99 87 70 82 66 75 80 80 77 72 74 86 91 80 88 100 93 88 82 78 73 80 88 89 89 90 87 72
96 97 97 96 94 95 88 88 96 92 100 99 84 98 98 72 76 96 99 98 76 72 80 79 75 83 84 77 78 75 81 81 67 82 98 95 91 82 85 76 67 97 97 71 86 75 94
90 93 95 95 90 93 86 92 96 96 100 99 88 98 93 95 83 99 100 83 72 68 74 72 86 80 85 87 90 87 84 70 76 62 67 78 97 77 81 72 74 88 74 97 98 94 86
89 94 94 90 84 92 89 95 97 97 100 100 100 98 97 96 98 100 100 84 87 74 62 72 80 86 79 84 82 86 77 64 70 74 71 80 87 82 94 96 76 95 99 99 90 89 78
92 93 94 76 80 90 78 95 98 94 98 100 100 100 98 96 99 100 100 81 82 88 74 77 71 74 75 82 86 81 80 68 67 80 87 74 90 98 84 62 64 64 78 80 96 83 90
87 94 84 87 79 89 90 86 98 98 97 100 100 99 99 89 99 100 87 88 88 86 79 77 83 76 73 78 88 79 78 64 71 78 86 76 95 98 85 82 67 95 87 91 95 98 93
93 87 81 80 71 81 91 75 97 98 100 99 96 99 100 96 98 95 88 90 94 78 80 71 79 74 81 86 77 87 86 69 70 73 69 64 90 87 80 82 89 99 98 96 98 97 76
86 77 90 77 83 91 90 88 91 94 100 99 97 100 98 100 99 83 71 79 95 91 79 76 87 77 78 89 83 86 82 77 78 76 74 82 99 94 90 82 92 98 96 97 98 85 91
86 82 93 87 80 94 88 96 89 99 96 98 100 96 99 95 92 74 78 83 82 93 86 86 92 78 80 96 84 87 78 79 75 81 84 81 98 100 96 82 83 99 97 96 95 91 79
82 78 93 92 91 84 88 92 88 98 98 98 97 99 85 86 83 77 86 86 80 83 82 72 78 76 90 74 84 80 83 70 66 86 83 96 100 100 93 78 95 100 95 96 94 84 77
94 98 94 94 92 94 93 92 91 83 100 100 100 99 94 98 91 80 74 81 80 77 88 82 80 84 78 80 87 87 94 91 89 88 78 87 100 100 97 98 98 89 78 80 82 75 70
97 81 93 94 90 89 88 95 64 71 98 100 100 100 86 96 79 78 80 79 90 84 89 85 81 83 80 88 95 92 82 94 93 92 92 82 83 100 100 96 80 66 75 85 82 88 68
94 93 84 88 78 78 80 79 23 67 99 99 100 99 94 88 86 69 87 79 90 92 91 87 88 87 90 91 97 98 93 78 83 92 90 85 80 98 98 99 97 61 63 75 73 84 67
90 88 71 86 79 76 78 70 48 84 99 99 100 100 95 86 74 70 80 90 82 87 89 97 96 92 97 97 100 99 88 82 93 91 92 99 95 96 96 100 81 62 65 72 73 60 60
74 79 76 80 80 79 88 41 72 88 98 99 98 100 99 90 82 76 68 78 84 80 90 91 91 96 99 100 100 96 95 88 90 81 93 88 96 96 94 93 90 54 67 69 54 57 59
90 92 85 84 79 82 87 38 86 91 94 99 98 100 100 90 82 77 74 70 76 73 74 87 89 88 90 99 96 91 86 94 88 90 83 93 75 78 77 73 59 56 53 53 60 65 64

GFSGBSN_850_rhum_030.txt.gz
RH
93 93 91 91 90 89 91 91 96 99 99 99 100 99 99 87 83 86 99 83 80 54 60 61 58 58 55 83 72 67 65 67 76 98 99 90 72 62 54 50 57 53 42 50 50 57 51
92 93 90 92 92 92 92 88 88 89 98 95 100 99 98 100 94 84 92 91 80 69 58 67 64 63 80 51 47 64 68 64 82 99 99 90 76 72 61 57 55 52 56 53 54 51 49
89 91 92 90 91 92 88 88 91 88 84 83 93 92 92 98 99 98 91 100 80 77 59 69 68 65 79 64 54 49 53 67 70 98 96 93 83 79 71 63 67 62 64 48 46 46 46
95 96 94 92 93 90 88 92 92 93 88 92 89 81 85 89 98 100 94 100 83 79 68 74 78 84 75 58 55 56 58 79 86 87 95 86 84 83 69 72 62 59 58 56 43 47 46
92 97 88 88 92 92 90 93 90 91 86 96 89 87 82 89 81 99 93 98 96 82 77 79 84 89 74 70 64 52 63 78 91 86 81 86 90 80 74 64 63 58 56 58 49 39 41
97 94 93 91 94 89 90 95 82 89 88 91 92 78 78 66 77 92 94 98 99 89 97 97 97 87 81 73 64 58 62 74 77 76 74 69 62 54 52 61 57 49 60 50 50 43 47
100 91 97 96 97 94 91 88 92 95 88 88 88 76 85 84 80 86 100 100 100 100 100 79 81 71 76 75 69 63 72 71 71 69 66 67 68 69 53 48 45 57 59 60 52 45 48
98 98 99 97 95 95 90 95 87 91 93 80 79 79 77 79 82 89 98 100 90 83 90 83 85 81 86 82 74 81 73 62 64 68 60 69 76 48 48 52 57 60 64 57 47 42 48
96 99 99 99 97 99 94 91 94 95 93 81 79 80 93 80 78 76 82 99 77 57 64 88 93 82 85 81 72 76 72 67 56 68 64 61 56 53 57 57 62 62 70 67 61 46 41
97 97 94 94 95 94 88 95 92 96 91 86 93 89 98 97 86 97 88 92 86 66 95 75 85 83 84 80 68 76 69 63 65 64 65 64 50 58 63 63 58 63 47 56 60 62 68
93 98 96 96 87 83 89 91 93 98 92 90 98 91 88 96 97 78 87 86 99 83 94 63 86 93 82 63 69 84 74 67 64 66 68 66 68 73 72 62 55 64 51 54 56 62 66
94 97 94 96 91 76 94 93 94 93 93 93 97 99 100 93 98 75 84 100 100 96 82 86 85 91 85 66 68 84 79 76 66 61 65 56 60 60 55 52 53 53 62 65 60 69 89
94 90 89 86 82 85 95 91 91 92 97 93 97 99 97 97 97 80 90 100 98 91 63 90 78 86 71 72 71 67 82 88 78 95 93 66 64 60 61 68 62 66 95 74 87 92 64
87 84 84 86 81 92 94 90 89 99 98 99 96 81 85 89 89 78 99 99 96 64 67 62 67 74 80 65 67 74 82 89 62 65 84 78 75 64 68 66 59 74 71 69 64 52 43
90 85 83 79 81 90 90 90 93 98 92 100 100 89 96 95 100 100 99 98 90 57 61 72 73 79 84 68 66 72 73 63 57 64 84 83 81 62 60 56 58 88 96 60 84 64 77
89 79 87 78 91 79 84 92 95 94 89 98 100 98 93 98 96 100 99 100 67 60 57 56 72 60 74 73 73 66 65 54 56 52 56 66 85 58 57 64 64 76 59 89 95 77 65
81 89 83 88 83 73 76 92 87 90 90 100 100 95 93 94 99 98 100 100 77 61 56 59 66 71 63 70 64 64 62 55 55 55 54 60 66 68 75 82 66 83 96 99 70 73 69
91 94 94 89 77 76 87 90 89 95 96 99 99 100 100 91 99 98 100 84 68 67 68 64 56 58 61 63 67 66 63 54 54 59 66 54 71 79 75 44 45 40 52 63 94 80 84
80 86 93 92 81 91 94 91 95 98 100 100 98 98 100 91 99 100 94 83 74 69 67 65 68 61 56 64 72 60 60 56 59 60 58 57 87 86 74 68 55 70 58 55 83 83 92
84 89 93 93 86 91 93 91 98 99 100 99 99 99 99 98 97 91 93 85 82 76 69 66 67 60 63 66 62 75 67 62 61 57 61 57 71 77 65 70 70 98 76 90 98 96 71
96 83 84 92 90 89 92 87 96 93 96 99 98 99 97 99 94 85 70 77 76 77 71 67 70 64 66 77 79 85 64 63 67 66 63 64 100 80 82 68 78 88 84 88 99 92 94
98 93 92 92 93 91 84 82 84 80 93 98 99 94 99 78 81 71 67 67 68 79 69 76 69 67 67 75 69 69 68 69 59 65 66 68 91 91 96 71 71 90 92 95 96 95 95
98 96 93 92 92 88 83 80 67 70 98 98 98 98 95 78 83 72 68 63 65 66 73 65 62 67 72 70 70 74 66 67 63 62 71 74 95 99 95 69 74 90 96 96 89 81 78
87 94 95 89 87 82 81 81 34 78 98 100 100 100 96 91 81 61 61 63 64 61 64 76 72 70 71 73 76 88 93 84 87 76 62 77 95 91 95 82 94 88 73 85 87 82 78
87 93 95 93 82 75 70 80 25 88 96 100 98 100 97 84 66 66 65 68 73 77 76 72 83 81 82 85 88 91 72 80 71 79 74 68 79 94 98 97 70 67 78 92 91 87 64
91 91 94 82 84 71 81 78 26 94 96 99 100 100 100 75 70 59 66 69 73 77 92 83 85 81 84 91 94 97 72 61 68 87 80 78 78 90 80 97 78 62 74 73 64 75 50
90 90 90 80 90 79 81 60 34 95 93 98 100 100 100 92 81 74 68 73 73 76 81 95 97 99 99 93 95 99 83 63 72 74 87 92 95 94 96 98 67 48 51 69 59 54 53
92 92 89 88 82 95 78 34 34 81 91 97 99 100 100 99 84 76 70 83 83 78 89 86 89 90 96 98 99 95 81 64 72 65 76 76 79 87 88 93 82 47 55 61 50 56 58
95 74 93 92 89 91 91 47 72 58 66 94 96 100 100 98 87 76 69 66 70 70 75 86 80 84 80 84 88 90 79 69 70 66 67 79 56 57 59 52 46 52 50 53 64 64 65

GFSGBSN_850_rhum_033.txt.gz
RH
94 93 94 93 93 91 90 91 91 89 89 88 88 91 98 98 100 95 85 86 98 81 65 56 58 57 56 82 66 70 71 74 81 89 95 70 56 46 43 36 35 42 38 30 35 39 41
93 96 93 93 96 93 93 91 92 89 91 91 89 90 93 97 93 100 96 91 94 86 75 58 61 59 83 58 56 66 67 76 77 89 96 79 66 51 49 41 43 38 39 36 38 38 40
93 93 96 94 96 91 93 91 92 93 92 93 91 92 90 85 88 94 100 100 91 97 82 62 66 64 86 60 62 60 64 76 86 83 88 91 78 66 60 52 51 51 52 42 39 39 39
98 98 92 90 95 89 92 76 93 92 90 93 93 90 92 92 85 80 97 100 99 99 91 65 71 91 72 66 69 57 65 74 80 86 84 84 83 73 65 60 51 52 46 52 31 33 34
98 98 94 94 98 98 94 94 89 91 94 93 93 93 91 79 75 79 85 99 98 100 93 78 86 89 63 68 62 60 64 71 76 79 86 92 86 76 68 64 58 51 49 44 36 32 35
97 98 99 99 96 98 96 95 93 92 96 85 89 69 79 75 74 77 79 96 93 100 98 98 95 84 70 63 70 66 66 72 71 74 76 72 68 68 68 74 59 43 46 40 39 31 38
96 97 97 97 95 95 97 98 80 87 93 91 80 77 71 72 83 79 85 94 98 100 100 85 77 58 67 74 72 67 67 70 66 60 57 53 56 60 45 43 40 37 45 42 34 32 38
99 98 97 94 92 88 93 78 77 84 93 87 85 84 80 75 76 73 94 99 99 99 97 86 73 72 71 70 66 65 65 61 62 67 52 67 77 44 37 38 42 45 49 46 36 32 37
98 91 95 94 91 95 82 78 77 94 81 91 91 91 84 85 83 77 94 93 98 100 92 80 73 69 79 74 56 66 65 55 56 59 58 61 46 42 44 48 53 48 52 50 51 43 37
94 95 92 84 80 79 93 91 86 90 86 92 92 97 98 97 81 94 94 93 95 100 100 91 82 72 79 69 64 64 62 53 50 54 53 55 40 48 48 52 46 54 37 42 47 54 53
92 98 86 84 83 92 88 93 88 89 90 89 89 90 98 100 95 92 90 99 100 100 97 72 75 73 69 59 61 69 61 60 52 50 52 59 56 56 58 50 43 54 44 49 49 54 61
100 95 84 87 79 93 94 78 85 90 90 88 88 93 100 99 99 96 94 95 98 99 97 82 87 79 72 56 61 68 66 65 52 48 52 46 47 49 50 46 46 48 50 54 53 62 84
98 88 79 84 93 76 80 80 90 91 90 88 91 96 91 99 94 93 85 100 98 97 56 93 77 77 69 65 64 71 75 73 69 93 88 61 54 49 47 56 50 53 74 68 79 88 63
99 84 79 76 76 91 77 80 88 90 96 92 92 96 99 89 97 91 100 99 97 78 63 52 71 67 76 62 62 59 67 83 56 54 66 78 75 53 58 58 56 59 62 65 58 47 39
98 94 80 78 92 79 92 92 90 92 89 91 98 93 95 98 100 79 98 96 99 56 56 66 69 80 78 59 61 62 61 65 56 55 75 69 72 48 52 47 48 65 87 52 70 54 64
97 86 78 89 84 83 91 92 94 89 92 98 100 98 92 90 96 84 98 70 95 49 50 53 67 58 76 65 65 60 69 49 52 46 42 57 78 50 51 50 50 57 51 84 93 81 60
84 81 78 93 77 84 94 88 93 99 97 100 99 98 99 100 99 99 90 91 72 51 46 50 54 56 56 63 58 60 60 49 42 44 45 51 58 65 61 70 58 69 77 77 64 74 63
88 82 78 92 81 94 94 86 98 98 99 98 98 100 98 96 96 97 100 95 55 57 59 51 44 45 52 51 53 52 52 44 42 42 56 49 56 77 64 41 39 41 59 61 91 63 78
100 94 90 85 80 88 91 90 89 100 100 93 97 98 96 98 98 99 92 85 62 64 58 55 58 48 46 49 60 51 49 47 47 48 48 50 72 79 81 55 44 54 50 47 67 85 93
95 98 92 87 94 84 82 89 55 93 98 95 98 99 97 97 94 82 94 92 82 67 58 53 55 47 50 53 51 56 56 56 51 47 60 48 60 73 68 79 67 97 69 64 95 97 72
90 91 94 89 95 90 80 80 41 83 88 96 96 95 91 99 78 88 77 82 73 66 60 55 58 51 53 63 65 64 54 57 57 55 56 57 99 70 70 63 71 79 74 74 98 95 98
88 85 95 90 92 86 82 81 30 83 78 94 98 98 88 72 65 69 69 82 61 67 55 62 57 55 53 58 57 63 60 60 52 56 61 61 86 85 90 56 57 66 55 75 93 95 96
91 92 81 91 93 81 82 83 31 88 97 98 98 100 99 69 62 54 62 59 56 54 63 56 52 54 59 59 62 66 60 52 52 65 65 71 92 88 75 61 60 78 95 96 94 91 95
92 92 91 78 93 86 82 78 36 93 98 100 98 99 98 76 63 52 49 50 52 52 58 62 59 54 70 70 72 76 82 79 78 76 76 72 78 83 86 67 83 57 49 65 86 85 79
88 84 89 88 75 90 80 72 28 83 98 99 100 98 100 65 57 52 50 52 55 62 62 65 75 86 82 78 73 78 76 82 68 76 83 66 68 76 83 70 57 51 50 66 89 94 61
90 67 66 89 77 90 84 63 33 61 80 94 98 100 100 82 56 50 51 53 58 59 69 72 81 81 79 80 88 97 74 50 66 91 70 67 65 79 68 90 73 53 51 53 61 82 51
92 89 56 57 87 44 79 44 34 43 58 88 100 100 100 93 67 53 51 58 58 61 67 76 91 96 89 88 96 96 76 48 58 58 90 98 100 98 95 91 56 37 44 61 66 55 53
96 92 78 53 92 86 91 89 92 83 44 88 100 100 98 98 79 74 68 63 67 65 67 85 84 88 96 95 98 87 74 58 57 46 64 69 78 88 91 98 83 39 43 60 49 51 53
97 95 76 79 94 88 88 91 96 93 63 93 96 100 100 99 98 77 74 70 76 73 71 80 75 70 74 86 86 91 93 57 54 55 51 65 47 57 57 57 37 41 48 50 55 58 57

GFSGBSN_850_rhum_036.txt.gz
RH
94 93 94 96 100 100 92 94 88 87 91 92 91 92 94 92 93 100 100 99 96 93 95 75 52 58 47 92 75 74 60 84 85 88 85 82 57 50 51 39 40 43 38 34 32 33 35
98 97 96 98 90 94 93 93 94 94 95 90 90 93 94 95 91 95 93 99 100 95 99 81 59 62 58 65 61 73 58 71 76 91 83 77 57 50 48 40 38 35 37 37 36 32 36
96 98 97 92 98 97 96 96 85 80 95 91 89 87 91 93 90 91 82 87 100 100 99 91 64 66 87 69 58 59 58 64 76 73 84 84 74 62 55 51 50 45 56 47 43 40 40
98 97 99 95 98 97 94 84 88 85 84 84 90 92 91 90 92 95 77 79 94 100 100 96 70 83 80 65 69 61 58 64 72 81 73 80 76 71 64 61 51 55 56 70 39 39 36
95 95 97 98 99 95 95 92 91 87 85 76 79 74 92 88 89 90 81 67 79 99 98 99 83 94 70 68 66 64 60 62 70 81 77 85 81 70 66 72 68 54 68 57 45 34 34
98 98 98 92 93 96 91 91 79 81 82 77 85 80 73 83 68 71 81 78 62 97 83 99 93 90 73 68 62 61 61 68 68 69 82 87 80 74 70 73 80 62 65 54 47 37 38
99 99 91 93 92 82 86 95 90 74 75 85 80 85 79 85 73 80 83 87 80 98 100 91 87 61 60 62 67 61 64 70 68 68 73 75 79 87 71 60 56 54 49 47 41 31 37
98 99 98 90 82 80 93 92 85 82 77 75 79 87 92 83 83 78 79 99 82 98 98 82 83 64 66 67 63 62 65 67 66 83 57 62 76 49 43 45 52 46 50 52 42 34 39
99 98 97 87 82 83 94 95 86 88 78 76 87 89 88 89 86 78 75 88 81 96 99 91 78 67 70 64 59 62 64 59 64 67 68 63 51 45 48 47 51 52 57 54 51 44 42
97 100 96 84 88 81 94 91 76 87 78 88 90 84 82 89 97 94 94 86 94 97 100 98 83 70 74 62 58 62 61 53 57 72 58 60 44 44 48 54 48 61 42 45 47 58 68
95 98 86 85 94 94 95 85 80 91 89 89 80 87 90 100 100 94 96 94 98 98 98 92 85 69 71 57 62 64 60 50 52 53 53 63 52 57 58 50 44 52 47 50 52 62 64
97 99 89 89 89 92 83 93 89 88 89 90 87 85 94 91 97 95 79 93 92 99 97 99 88 71 73 58 59 61 61 59 54 46 46 51 44 47 50 44 45 48 51 53 58 62 89
98 98 79 78 92 94 91 89 82 91 92 85 83 98 90 94 96 89 97 99 99 97 91 99 89 73 66 67 69 64 72 76 76 92 90 62 59 49 47 56 50 52 68 94 97 92 89
99 81 80 81 93 92 90 92 90 92 93 86 95 99 93 89 93 87 95 97 97 96 99 56 74 71 69 64 70 68 79 84 62 59 80 84 77 59 52 58 62 65 65 93 82 85 64
98 82 81 91 92 89 92 93 89 92 96 95 99 85 94 97 90 87 92 92 99 90 59 78 74 87 78 63 66 72 74 69 56 57 74 77 69 47 53 48 54 65 82 55 77 63 87
99 94 79 84 88 86 91 93 92 98 98 98 98 94 100 99 80 95 94 80 100 79 52 56 74 62 76 72 67 69 72 54 56 48 47 62 70 51 54 45 46 57 51 91 95 96 82
92 98 91 90 93 86 92 92 99 98 99 97 86 92 99 93 82 89 96 78 87 80 49 66 56 57 53 66 61 63 58 49 45 48 46 49 60 67 66 71 69 69 74 71 71 81 86
97 99 96 94 92 82 80 91 83 100 93 84 97 98 95 89 98 99 94 88 83 80 52 44 42 45 50 51 59 54 59 48 41 44 55 49 62 89 78 48 51 52 65 64 88 78 79
95 97 98 92 88 78 82 69 69 100 98 88 90 90 96 100 100 100 96 94 82 70 56 52 51 42 43 53 61 49 51 45 44 47 52 53 76 90 86 61 49 60 56 54 64 84 90
95 92 95 90 90 79 76 60 62 93 93 88 87 94 93 97 96 90 98 84 79 66 56 49 48 44 45 56 45 56 64 52 47 48 49 47 64 82 92 87 80 94 76 62 74 98 81
95 93 93 92 94 82 78 62 44 84 92 95 91 93 90 98 84 85 87 78 74 67 56 51 52 48 49 58 61 59 56 63 53 62 52 61 98 78 77 65 70 79 78 73 98 94 98
91 87 90 92 90 90 78 72 31 85 81 91 99 98 88 70 66 69 81 94 70 60 59 57 58 52 50 55 62 66 55 54 63 58 60 61 97 83 90 67 66 77 65 64 70 93 96
92 92 86 91 92 90 79 74 32 85 97 94 96 97 100 67 57 60 64 66 55 57 62 54 52 54 62 64 61 64 60 51 54 61 64 78 96 94 87 66 68 81 68 82 93 85 92
97 92 92 90 90 85 86 89 40 72 99 100 99 99 96 79 67 57 49 51 55 53 63 59 54 62 68 68 70 71 73 73 72 69 69 93 89 86 95 79 95 67 65 66 74 72 74
100 98 95 91 85 90 89 94 54 35 90 100 99 100 99 85 56 52 47 51 59 59 60 67 73 83 76 74 67 78 80 82 77 78 78 84 90 93 95 80 67 50 52 61 76 78 71
98 99 96 93 92 90 90 90 67 79 30 100 100 100 100 100 59 46 46 49 54 61 65 81 82 79 77 84 88 88 82 61 89 91 73 84 83 85 90 95 83 54 52 51 68 89 58
99 99 98 94 93 92 90 91 94 91 28 97 100 100 99 99 73 53 53 55 58 59 83 77 86 93 86 91 88 89 79 56 65 93 90 98 94 97 96 96 72 44 51 60 88 74 58
99 100 97 97 94 91 92 89 90 95 35 96 100 100 100 99 82 73 64 57 58 66 72 88 87 90 92 88 93 88 88 68 69 68 77 85 92 92 97 99 92 43 48 62 61 56 57
99 98 96 95 86 91 95 99 88 95 70 84 100 100 100 99 97 76 72 70 71 74 74 81 79 71 75 87 86 94 95 80 60 76 50 73 60 70 71 74 46 42 48 50 56 61 63

GFSGBSN_850_rhum_039.txt.gz
RH
96 95 97 95 99 99 90 89 94 84 84 89 92 90 88 90 90 94 90 99 98 100 100 99 88 59 58 93 83 74 68 79 97 86 75 83 76 65 62 55 50 52 47 40 39 36 36
95 96 95 96 98 91 94 95 81 88 86 83 79 86 84 90 85 92 86 90 100 96 100 100 93 72 70 89 61 69 61 69 86 87 79 79 69 56 53 52 49 41 45 46 43 43 43
96 92 95 94 96 98 93 92 90 87 88 91 95 82 84 94 93 92 94 91 88 94 100 100 96 69 91 63 57 68 61 59 73 77 80 76 77 61 56 52 51 49 57 55 50 47 48
97 97 99 99 87 91 89 83 82 80 78 82 97 86 69 82 76 72 93 90 74 68 95 99 99 79 87 65 64 69 54 64 80 81 75 78 81 65 63 57 52 57 60 79 56 46 45
99 94 99 92 96 84 81 92 86 84 92 78 76 74 73 73 79 72 68 72 70 60 83 97 99 80 80 56 69 66 49 60 73 80 75 83 86 75 68 70 71 61 83 76 64 42 44
98 98 98 99 87 83 81 81 86 86 76 76 80 74 81 78 81 80 73 73 65 64 68 98 98 91 82 74 66 67 54 60 69 81 78 85 86 90 84 83 93 76 77 67 62 43 42
93 95 98 96 84 84 89 92 93 85 93 93 72 75 78 93 83 83 74 71 76 83 72 95 94 82 60 66 63 60 61 67 70 78 95 83 88 95 85 80 67 63 67 60 48 39 41
94 97 99 86 82 96 95 96 95 82 94 91 73 87 89 78 77 79 80 80 91 98 95 94 98 74 63 64 64 59 68 68 72 89 66 75 83 64 59 60 63 70 69 60 50 40 44
99 98 98 82 94 92 94 92 91 94 93 89 92 86 78 83 90 81 82 78 87 84 98 98 98 88 68 63 65 62 68 67 76 80 69 78 56 49 55 56 60 55 61 60 59 51 48
98 99 96 79 92 91 90 80 81 93 91 92 88 80 83 92 97 99 94 89 98 97 100 98 96 83 66 63 67 63 67 61 63 71 67 63 48 50 57 60 53 64 50 54 56 64 76
92 91 84 78 83 84 86 92 82 80 91 91 80 87 77 89 100 98 93 96 98 86 97 98 95 78 62 68 65 65 64 55 67 68 64 75 58 58 57 55 48 60 52 57 60 69 71
97 98 83 79 80 81 89 91 89 94 90 89 71 81 98 98 97 91 98 95 91 98 96 100 88 77 84 65 63 64 63 57 53 56 58 57 46 50 57 46 50 50 53 56 63 72 97
93 99 82 78 83 80 87 88 92 89 93 93 92 95 92 99 97 98 92 96 94 98 98 100 95 76 75 75 70 67 72 77 79 89 91 63 61 50 49 61 51 61 70 95 89 91 89
100 100 88 89 75 81 92 88 89 99 92 97 99 97 85 92 99 89 95 92 98 97 100 89 74 70 83 71 74 72 80 86 69 65 88 88 87 67 56 62 69 72 69 91 91 98 83
94 98 97 80 88 90 92 95 95 98 99 97 94 89 98 93 80 87 90 94 98 100 93 94 85 97 96 69 78 75 78 80 65 65 78 89 78 53 52 51 57 71 86 62 82 75 94
91 94 99 89 89 89 93 94 96 99 98 87 82 95 97 97 93 87 99 97 96 96 74 69 95 74 93 74 83 82 76 62 56 56 54 62 79 63 58 50 54 60 59 85 94 96 93
96 94 91 95 88 82 89 96 81 98 86 77 74 81 98 95 78 92 98 100 100 85 70 66 65 67 65 74 75 72 76 57 52 56 53 51 62 76 62 69 74 72 66 64 78 91 93
89 94 94 93 70 84 83 73 85 100 88 73 79 95 96 91 94 98 96 90 98 93 79 64 47 56 58 64 68 58 70 56 46 49 64 51 70 94 80 60 57 63 68 72 93 76 93
91 93 85 94 76 80 78 56 68 98 100 75 76 83 88 99 99 97 92 85 92 82 61 56 60 47 49 59 66 55 63 50 44 50 58 57 78 93 83 69 59 73 67 64 70 84 91
98 92 87 89 85 83 81 57 32 86 90 83 82 92 84 95 99 97 92 100 97 75 61 50 49 44 54 60 56 70 66 56 49 56 48 47 75 79 86 83 82 89 77 68 77 98 81
96 90 87 89 91 84 81 60 20 84 82 97 93 93 88 95 94 91 89 82 81 74 60 52 52 49 51 64 61 70 66 63 56 57 56 67 88 81 78 75 80 77 78 78 87 80 97
98 95 87 90 89 66 88 61 36 64 87 87 98 99 97 88 81 78 89 92 77 71 67 64 65 63 60 62 66 61 66 68 70 64 66 68 96 91 92 74 77 86 72 72 74 73 77
94 99 91 93 93 87 65 56 39 32 96 100 95 99 100 74 72 72 82 66 69 62 60 61 58 72 79 75 69 64 53 53 60 73 73 80 94 98 96 71 75 87 70 66 78 85 84
87 94 97 100 92 91 74 89 47 55 81 100 100 99 100 81 78 67 59 57 67 63 69 69 70 77 74 71 66 65 67 72 68 74 64 85 93 93 95 83 94 64 58 62 75 77 77
78 90 97 99 98 93 87 93 83 93 45 97 100 99 99 93 70 60 50 69 64 68 73 83 83 84 74 73 73 88 85 85 87 83 83 79 84 97 96 95 70 54 57 64 82 77 67
82 89 95 98 98 92 91 88 94 93 65 91 100 100 100 95 73 73 48 60 69 73 66 92 78 76 72 87 86 81 90 76 90 89 78 85 83 98 97 98 88 57 52 53 73 93 60
89 92 97 98 98 90 89 98 92 93 86 79 100 100 100 100 83 73 54 56 58 66 85 85 78 82 82 92 82 89 85 65 92 91 87 100 100 98 91 97 82 55 47 62 83 69 61
81 90 98 99 94 85 97 98 98 99 88 84 100 100 100 99 83 84 68 60 58 62 83 88 81 87 88 92 88 91 96 81 81 85 83 90 96 99 97 99 93 45 56 69 60 58 62
78 86 98 99 100 95 99 100 96 99 98 92 99 100 100 100 90 82 76 72 68 72 74 79 83 80 80 90 91 93 85 93 82 84 65 88 74 80 80 76 50 46 51 54 57 61 65

GFSGBSN_850_rhum_042.txt.gz
RH
87 94 92 93 97 98 96 96 93 82 80 82 87 89 95 89 79 87 92 91 91 99 93 99 93 100 69 87 78 78 72 63 94 91 84 77 81 76 68 64 57 59 51 45 43 41 44
99 97 97 99 99 96 88 84 77 90 88 88 88 88 83 78 70 77 80 88 96 94 91 95 95 99 82 89 44 67 65 80 93 91 86 81 76 68 57 57 62 49 48 46 44 45 47
99 98 95 99 93 96 83 82 80 78 80 82 88 75 75 74 88 70 80 95 94 81 79 92 99 100 92 58 63 70 62 70 78 84 81 75 76 65 57 57 51 51 55 54 51 47 49
99 100 95 99 98 87 80 81 79 79 82 83 78 74 75 70 74 77 71 66 62 64 64 76 97 100 92 59 64 72 64 70 77 79 78 70 78 72 64 56 55 58 63 71 50 46 43
98 99 94 96 94 89 89 95 95 95 94 84 79 71 70 78 84 78 74 66 59 52 64 61 99 100 82 60 59 60 59 67 82 84 77 85 82 76 66 73 73 64 77 77 66 50 49
100 98 96 97 84 93 94 90 92 95 93 90 91 69 72 87 88 82 79 66 57 64 63 69 90 97 86 72 59 60 61 64 77 83 83 93 94 95 84 78 89 81 80 72 69 49 48
99 99 95 96 84 97 93 93 86 95 93 84 95 91 85 81 73 73 76 77 69 82 77 94 94 86 74 66 60 66 65 63 74 84 92 93 90 95 87 73 63 62 66 70 60 41 44
98 97 100 90 93 89 81 85 91 80 78 92 88 92 86 77 84 89 89 89 76 94 93 70 98 81 78 70 68 66 63 69 74 91 81 96 93 76 75 78 72 70 70 66 54 43 44
98 95 96 83 81 77 78 84 95 83 83 91 93 80 80 85 89 84 92 98 90 90 95 77 96 97 68 61 64 70 66 70 76 88 75 79 63 56 61 65 72 62 65 62 62 55 48
99 99 96 82 90 84 79 84 91 91 95 89 94 85 82 85 90 99 94 98 86 93 92 71 94 88 71 63 68 62 69 67 72 86 68 67 48 56 62 62 55 64 53 54 59 64 79
97 99 99 82 95 75 79 87 89 90 85 92 90 65 72 91 100 100 97 83 95 89 100 88 94 89 67 70 67 68 68 56 72 70 65 72 63 58 61 59 50 62 53 56 59 70 72
95 99 99 86 88 88 89 90 87 97 96 89 85 86 89 97 95 96 98 98 91 98 95 98 95 89 78 67 67 68 65 56 55 60 57 58 50 53 55 52 50 52 57 67 72 77 92
93 98 99 91 93 92 94 94 92 97 98 100 98 86 99 90 100 98 89 100 94 97 100 100 98 78 76 78 76 71 75 73 77 92 98 65 62 52 51 64 54 58 70 90 89 97 81
93 96 99 98 94 91 92 91 99 90 99 94 92 90 96 94 94 96 97 96 95 96 100 88 76 76 90 68 76 72 75 84 68 74 86 88 89 62 54 62 71 66 67 87 74 97 88
94 87 89 97 90 96 92 99 98 98 90 90 86 92 85 94 85 85 97 95 97 100 98 79 83 100 94 82 79 78 72 84 71 62 78 88 77 57 56 55 58 72 84 63 83 79 95
92 96 92 96 89 95 75 99 91 94 83 77 77 90 99 100 89 92 100 96 99 100 82 68 98 90 99 88 88 80 72 66 61 60 56 68 91 63 58 53 54 59 61 85 92 91 88
94 97 93 94 93 69 48 95 81 76 73 71 69 87 96 87 84 88 99 100 100 96 91 74 84 77 77 75 74 70 66 60 54 57 54 53 74 80 65 68 76 75 76 74 80 87 92
97 92 94 73 94 90 66 92 61 83 58 60 70 96 80 87 87 99 100 99 100 93 89 84 54 64 70 69 73 68 77 66 51 55 67 53 78 93 77 60 57 63 70 72 93 70 96
99 93 95 66 79 82 67 44 26 86 88 81 70 76 80 92 99 99 89 94 90 88 82 66 55 51 56 64 73 61 60 54 50 54 63 57 80 93 83 70 68 76 70 69 74 88 95
95 96 94 86 38 36 10 30 26 72 84 88 83 89 77 90 93 97 100 98 94 75 82 53 56 51 57 60 59 72 66 61 54 56 48 52 76 75 87 75 80 85 77 75 76 98 87
98 98 93 92 60 24 9 12 32 52 82 93 88 95 96 96 94 89 92 87 77 80 60 52 56 58 58 70 70 77 68 63 60 59 63 64 85 85 81 76 83 79 76 80 88 75 93
96 94 93 98 80 31 24 11 29 42 90 86 99 96 94 96 79 80 87 88 80 75 70 69 77 68 64 73 65 74 73 69 65 62 68 70 84 92 90 73 80 88 78 76 72 69 70
72 96 92 96 97 56 34 36 55 85 88 92 97 96 99 81 78 77 79 67 69 62 65 73 69 74 82 78 71 57 51 53 61 69 77 79 95 96 98 70 78 93 80 73 72 73 67
50 94 99 82 90 93 53 55 76 97 96 100 99 98 97 89 81 73 65 66 71 69 75 79 74 80 77 68 63 61 67 70 65 71 68 89 90 95 97 81 96 68 52 56 63 66 76
37 93 99 81 89 91 80 76 89 88 98 94 100 100 100 89 87 65 63 72 70 70 82 92 86 83 74 74 82 86 89 82 85 79 78 72 82 97 99 97 71 58 60 64 78 72 66
30 87 98 94 89 85 85 84 96 89 99 71 100 100 100 98 83 88 60 65 76 70 67 86 77 71 71 85 83 79 89 78 96 98 82 82 82 96 97 98 83 55 49 60 68 93 65
35 81 96 91 89 92 89 92 93 97 98 76 98 100 100 99 86 88 64 63 61 72 86 84 78 78 79 90 90 94 85 73 93 87 99 100 99 94 90 97 81 57 50 66 80 69 60
44 86 93 94 90 90 98 98 99 100 99 80 98 100 100 100 92 95 85 64 64 63 82 83 80 85 88 92 87 90 92 86 84 81 89 91 87 92 90 98 94 46 66 70 62 58 62
74 89 92 98 89 99 95 93 90 97 97 98 96 100 100 99 94 86 79 76 75 67 69 78 84 80 78 92 92 89 85 87 89 88 73 83 80 82 82 76 52 44 52 51 54 60 64

GFSGBSN_850_rhum_045.txt.gz
RH
98 99 99 97 94 98 96 85 83 80 78 80 85 92 74 64 80 85 85 76 74 93 93 97 100 97 99 90 60 83 86 55 81 88 83 95 89 76 76 68 61 62 55 51 47 44 47
95 97 98 97 98 98 93 88 83 83 86 88 90 84 79 78 75 78 77 70 82 90 94 88 100 100 100 85 54 61 72 76 86 83 86 83 83 74 65 61 67 55 53 50 46 45 46
97 98 97 99 98 94 83 80 90 94 92 92 92 71 82 73 76 75 72 74 83 94 94 67 89 100 100 82 53 44 67 73 86 95 90 81 73 74 63 59 54 52 56 54 53 49 51
97 97 98 99 97 86 91 86 90 93 91 99 92 85 95 82 72 83 76 74 78 62 64 59 83 100 99 77 70 73 79 83 76 83 75 76 84 72 63 59 58 63 63 73 51 51 46
96 99 95 99 98 85 91 90 87 92 83 90 91 78 90 72 78 86 80 80 73 62 66 63 90 99 91 78 75 73 69 80 80 90 89 78 80 76 68 74 78 66 85 77 64 50 50
98 96 98 97 96 82 86 82 80 88 90 75 92 93 94 83 87 77 78 70 63 60 63 71 84 99 92 82 70 73 66 70 81 83 95 94 90 93 86 81 93 87 76 74 70 50 52
93 94 96 96 85 80 76 80 90 84 77 84 87 94 81 74 74 83 92 91 68 81 87 74 88 88 85 74 70 60 63 65 80 87 98 94 97 94 83 73 62 67 71 72 64 47 46
89 96 95 99 80 93 77 79 79 80 93 92 95 90 88 73 88 86 84 93 98 84 83 60 87 85 83 74 80 62 66 66 82 93 95 99 94 81 81 78 80 71 75 72 58 47 47
91 99 98 98 82 84 88 84 80 93 88 86 89 91 87 80 86 76 91 90 86 94 90 61 92 96 90 71 71 76 67 72 77 92 83 80 75 73 80 84 91 77 76 67 64 56 51
97 100 99 99 86 88 89 85 84 90 92 90 89 85 64 76 83 98 99 99 83 89 90 89 94 93 87 63 72 72 65 70 76 91 73 63 50 71 68 78 70 69 52 56 61 64 79
97 93 99 99 94 94 94 96 92 98 91 93 94 98 83 76 93 100 99 88 89 98 57 72 93 91 79 70 68 67 75 62 80 76 66 73 61 69 72 62 51 62 54 58 61 72 68
92 100 97 98 99 91 97 95 94 98 100 85 88 88 95 96 98 99 98 88 98 93 97 93 93 95 82 70 70 76 65 57 58 61 58 61 52 51 54 57 51 54 58 68 79 75 88
92 99 94 97 99 94 98 98 98 99 89 94 92 83 92 96 98 99 97 95 93 94 97 100 99 80 79 78 82 75 73 69 81 98 99 68 65 53 53 66 58 59 70 86 80 93 80
88 96 88 93 98 96 97 98 100 95 87 90 94 77 93 93 95 95 85 91 93 94 98 90 85 76 97 76 78 76 77 81 67 74 94 93 93 62 54 62 71 66 66 82 64 89 84
72 93 69 93 91 92 97 99 100 99 81 84 78 71 95 94 92 85 89 96 97 99 100 96 86 99 99 86 86 83 74 75 68 60 76 84 76 59 56 56 58 74 85 63 84 80 95
94 73 70 88 94 99 98 82 70 80 76 74 72 82 88 83 81 83 98 97 99 99 97 74 99 95 94 94 96 89 74 66 63 59 56 65 91 64 60 54 59 61 65 85 93 66 82
48 95 61 65 80 53 84 35 43 70 64 60 64 71 83 92 80 85 98 100 100 94 85 77 90 85 83 81 77 73 73 62 55 62 56 61 74 83 66 69 80 74 83 84 82 83 86
36 58 82 73 84 35 8 18 31 65 61 58 69 88 84 86 84 96 100 100 99 90 85 85 63 66 73 72 69 68 69 62 53 56 64 56 80 93 74 62 59 64 71 76 86 74 94
49 41 43 66 97 71 9 7 24 58 72 80 68 75 77 84 98 97 93 90 90 87 89 70 58 54 58 67 70 66 68 53 55 57 65 57 80 92 83 67 68 73 71 70 76 85 97
42 41 87 36 80 79 21 7 18 40 77 84 85 93 76 87 95 97 100 95 93 82 75 56 57 54 57 65 65 73 66 67 57 52 52 52 74 73 84 74 81 89 80 76 78 99 89
43 24 93 73 67 86 60 17 13 41 74 80 91 98 97 98 88 89 90 85 80 85 59 57 56 58 62 77 72 77 68 63 61 62 64 63 85 84 79 73 84 78 74 85 84 76 89
25 23 77 94 86 60 66 67 13 31 84 79 96 96 98 95 85 88 80 82 79 78 74 71 76 74 65 73 67 81 71 66 61 62 71 69 91 91 87 71 81 89 80 79 82 77 77
23 29 44 96 88 86 52 84 72 23 84 85 98 98 98 85 88 80 81 69 73 64 74 78 71 79 84 82 71 57 52 55 58 70 78 74 92 92 97 71 80 89 80 79 72 72 61
29 34 29 89 89 88 88 72 95 61 88 94 99 99 96 93 88 78 67 72 82 75 82 88 80 78 80 72 68 61 63 66 65 74 67 84 89 93 98 78 94 61 59 60 63 61 65
32 36 32 90 93 82 91 86 96 94 79 76 99 100 98 89 93 74 68 75 71 74 86 90 85 84 76 74 81 80 84 73 85 78 74 68 83 94 98 98 72 58 52 69 72 70 63
45 49 37 87 98 75 94 90 94 98 90 58 100 100 100 99 82 93 88 70 77 77 75 84 74 70 72 84 82 70 80 78 96 97 84 80 81 93 96 97 89 59 56 61 66 83 60
66 55 56 76 98 80 88 98 96 99 99 80 88 100 100 99 88 95 79 74 66 76 88 83 77 75 74 87 91 95 87 73 88 97 99 100 100 97 81 91 80 55 49 67 79 73 60
96 74 70 77 100 88 89 99 100 99 100 98 96 100 100 100 96 92 97 86 69 67 77 81 77 80 90 90 87 90 93 87 87 77 94 94 96 91 92 98 91 49 70 70 61 58 60
91 88 70 80 100 89 92 96 90 87 91 100 88 99 100 100 97 95 83 85 80 73 70 80 83 77 75 91 92 88 78 86 86 93 77 96 81 84 83 77 52 48 48 48 56 57 57

GFSGBSN_850_rhum_051.txt.gz
RH
97 99 98 99 92 98 99 93 89 78 80 87 92 88 81 90 75 82 74 78 71 73 78 76 73 88 93 98 93 75 96 94 85 73 96 95 96 85 76 70 66 66 59 53 48 51 50
97 98 97 98 95 99 86 84 81 72 73 81 80 82 87 77 79 92 84 80 76 72 72 73 79 82 94 98 88 77 64 71 85 92 94 94 87 78 69 69 62 60 55 55 52 50 47
99 94 98 97 94 98 90 79 86 86 77 80 77 81 80 84 77 78 76 77 70 70 71 72 77 83 99 89 85 67 77 71 92 82 92 90 81 65 68 70 59 61 67 59 54 54 51
99 98 98 97 99 98 89 85 95 77 87 85 81 80 79 80 83 93 81 71 68 74 72 76 72 86 92 66 84 85 84 61 100 78 98 88 76 66 62 60 63 67 60 75 56 57 50
98 97 100 99 99 99 95 89 90 89 86 86 90 95 86 89 93 85 70 64 70 72 62 82 69 83 81 74 87 77 86 90 96 91 88 79 81 75 68 73 79 73 84 79 61 58 55
100 98 99 96 100 98 99 94 95 89 98 96 88 92 92 89 91 80 79 74 65 67 69 86 76 93 78 90 77 82 79 89 89 84 83 82 76 88 86 78 82 80 80 78 65 52 59
99 98 99 95 98 96 93 98 97 99 97 98 96 93 92 86 76 81 89 72 66 79 87 71 74 79 74 86 78 73 76 100 86 80 90 89 90 88 80 73 62 65 71 71 65 53 52
82 98 99 99 90 96 97 99 100 98 100 95 87 90 87 89 77 82 80 82 85 88 87 66 68 82 82 99 96 70 76 93 87 96 91 97 87 70 67 65 66 69 76 76 62 52 51
66 94 98 100 94 98 96 98 96 99 100 83 84 80 94 95 78 72 86 92 98 90 85 77 86 75 95 97 84 84 79 78 87 94 94 97 90 66 69 77 75 80 78 76 68 56 55
52 88 99 96 97 92 97 91 99 99 93 85 75 86 92 91 81 94 95 95 98 79 86 90 84 90 98 86 80 76 69 76 87 93 90 94 90 84 81 78 72 92 72 62 59 65 71
47 75 94 97 96 89 91 94 98 100 77 91 79 83 92 92 94 94 97 90 85 90 73 63 84 94 89 93 79 75 68 75 86 85 80 89 97 93 91 89 72 83 58 61 62 69 66
34 75 98 94 98 95 84 82 98 99 68 84 76 77 87 97 93 92 84 88 86 82 98 91 92 94 95 82 80 74 70 70 74 77 71 65 58 66 88 85 80 58 60 66 70 70 81
31 88 99 99 98 87 40 68 71 90 59 68 68 75 59 76 93 90 91 90 87 92 79 100 99 98 85 95 79 73 89 78 93 99 100 95 75 57 69 87 64 57 73 86 67 82 77
23 78 100 100 99 75 33 25 45 64 60 54 66 70 62 77 88 94 92 84 89 94 99 97 98 87 83 89 84 81 86 82 69 82 97 94 95 65 56 64 74 67 68 84 56 65 58
26 54 100 86 100 55 13 6 19 49 67 55 49 55 70 80 80 90 96 96 93 97 100 100 91 98 100 90 83 94 84 78 70 61 79 81 92 61 62 59 58 68 80 60 83 79 81
29 43 93 85 96 68 15 7 6 30 61 63 61 56 71 86 82 83 89 97 99 99 96 84 95 83 97 92 100 95 76 67 69 62 56 66 94 70 63 56 60 62 64 79 85 73 58
33 45 67 86 72 78 21 8 6 18 54 64 63 57 74 84 79 79 99 100 98 89 94 78 87 87 89 88 81 78 69 66 59 63 58 64 72 84 65 71 76 72 79 80 72 73 57
39 36 30 94 90 60 18 10 6 14 53 62 63 83 70 82 85 94 98 96 87 85 84 66 64 69 73 70 71 74 70 61 56 54 66 62 78 94 81 65 62 63 73 69 80 81 90
39 30 32 71 98 66 32 13 7 12 81 94 82 66 64 81 98 97 87 92 88 88 80 57 60 59 60 64 70 69 65 61 55 54 61 59 79 95 87 71 68 75 73 68 72 82 97
38 43 42 68 99 79 45 20 9 8 73 90 86 92 70 78 92 92 92 93 82 80 67 58 61 56 63 71 69 71 70 72 58 59 54 53 71 71 80 72 81 90 82 73 76 90 80
37 60 48 57 99 98 66 48 12 7 63 87 90 94 94 99 91 91 86 85 80 86 71 61 62 61 66 76 74 78 73 72 68 69 62 62 84 79 73 68 82 79 81 81 82 76 81
50 68 55 47 99 93 79 69 28 9 45 90 97 94 89 91 88 82 78 77 83 86 83 73 77 76 63 70 62 80 74 71 71 66 65 67 97 88 85 72 83 89 79 82 77 75 75
63 76 71 61 88 92 89 82 66 24 24 91 95 98 100 86 89 83 82 74 76 76 83 80 76 80 80 81 77 60 57 58 63 71 74 71 90 87 84 75 79 91 82 79 82 78 67
76 78 74 67 71 96 96 88 87 74 58 76 94 99 100 93 93 84 82 79 88 85 77 88 76 75 73 70 65 61 64 69 69 77 64 77 84 88 96 76 90 49 62 65 66 64 69
99 97 89 69 65 91 91 95 84 87 83 61 76 100 99 89 89 87 89 80 74 81 90 88 89 82 75 74 76 79 79 71 88 90 72 61 83 93 92 94 70 62 73 71 71 65 57
98 96 92 88 87 83 80 88 83 90 90 78 66 100 100 98 92 90 97 83 78 83 82 85 80 80 76 85 80 69 92 81 94 94 80 78 74 81 92 81 86 54 61 59 60 87 62
84 85 86 88 93 89 74 83 84 78 80 97 81 81 99 100 84 97 98 83 74 78 84 84 77 75 74 85 88 90 82 73 85 92 97 99 98 94 82 84 77 59 51 65 94 79 59
82 80 87 88 91 85 70 96 88 70 77 97 89 76 94 99 93 95 100 98 84 80 85 78 77 78 88 86 86 90 89 84 82 78 74 77 83 89 89 89 88 50 72 80 67 58 59
96 99 88 91 95 68 94 99 92 71 80 99 98 86 84 100 96 99 100 100 93 92 82 81 76 76 72 92 90 90 87 91 86 94 79 90 80 88 78 70 52 54 52 57 62 62 59

GFSGBSN_850_rhum_054.txt.gz
RH
96 96 92 92 96 90 98 89 83 86 97 92 82 84 80 77 73 80 95 90 89 80 80 74 71 78 83 87 78 89 91 98 99 98 84 84 81 82 65 57 55 47 44 42 40 47 47
99 98 95 88 93 95 100 86 78 84 94 81 88 86 77 79 77 76 80 76 70 78 75 69 72 77 92 83 74 86 94 75 91 99 87 83 72 70 59 59 54 46 44 42 40 46 46
96 99 93 89 99 98 100 93 90 92 92 83 87 84 85 79 80 76 84 77 68 67 68 74 75 79 95 72 85 88 84 86 93 91 82 88 73 67 62 57 57 54 51 40 45 41 36
97 94 97 98 99 98 99 93 73 95 90 94 96 94 90 90 79 83 81 72 60 70 79 69 80 85 80 64 74 85 75 91 79 90 86 94 81 63 56 56 55 50 44 53 33 40 44
99 96 99 98 96 97 98 98 98 94 92 90 91 94 93 97 77 88 87 65 68 68 66 77 84 86 61 76 77 86 87 81 82 95 93 89 82 61 62 57 59 48 42 41 47 43 34
92 100 99 98 94 98 99 99 99 97 90 92 96 90 83 87 78 76 77 79 67 68 72 82 76 83 64 76 72 92 92 85 97 90 97 98 85 73 56 53 52 51 46 46 39 45 48
80 97 99 96 91 95 96 99 99 91 88 98 95 86 84 82 87 72 80 69 78 84 92 66 65 73 80 96 85 94 76 78 96 88 93 80 96 81 60 45 40 39 46 40 43 44 44
66 80 98 95 93 90 98 96 96 90 97 98 88 89 84 91 83 76 78 88 80 84 66 70 77 79 77 90 99 98 90 99 75 80 76 88 95 52 47 50 50 46 43 43 54 46 45
39 54 89 94 92 95 94 99 97 94 98 89 83 85 84 84 70 69 86 92 94 91 71 67 83 79 72 98 83 88 85 95 74 85 86 95 78 54 53 56 55 53 48 53 48 48 44
38 55 84 97 95 95 78 99 96 96 95 91 73 87 88 85 81 90 92 90 95 81 81 64 93 91 95 98 74 84 87 91 94 96 86 95 76 59 58 56 47 64 56 54 54 54 49
43 48 88 96 98 73 58 83 79 86 74 51 61 73 80 77 88 91 87 87 79 85 87 76 96 98 98 84 77 75 80 94 85 93 94 96 89 85 65 56 49 66 55 52 51 53 55
34 42 91 93 91 80 45 59 47 60 81 55 51 59 63 70 87 86 87 88 84 87 90 90 86 94 90 75 72 75 75 81 88 74 73 93 94 86 90 92 61 50 51 52 53 56 71
24 45 84 95 66 46 41 26 16 43 60 53 50 59 63 67 75 85 88 97 91 84 76 89 96 95 74 76 67 64 84 78 92 96 100 96 83 86 87 96 76 52 61 85 79 86 60
24 50 78 97 75 39 45 12 14 16 51 61 46 52 70 78 79 87 84 86 83 91 99 82 96 80 93 87 75 90 96 71 62 80 100 99 97 82 83 76 75 73 62 68 59 53 43
25 39 60 94 75 36 17 12 9 6 35 64 58 51 67 86 89 90 92 94 96 96 98 100 90 90 100 76 80 92 78 68 58 61 76 96 96 56 53 50 52 62 74 49 62 61 59
26 42 39 58 76 54 36 12 7 6 23 59 58 50 74 85 76 81 90 98 100 97 93 82 84 67 77 77 85 92 65 58 59 53 49 59 92 62 57 52 51 53 47 69 78 65 49
28 41 37 42 84 64 54 19 8 6 19 57 61 60 71 78 72 83 100 100 96 83 87 70 67 69 66 71 71 62 62 58 51 52 46 51 59 80 59 64 61 58 61 59 50 51 34
30 41 42 47 87 62 49 30 11 7 15 56 70 91 68 75 88 85 86 85 80 76 83 68 55 59 58 60 60 57 57 54 53 46 50 54 60 80 75 57 54 52 53 46 60 67 66
35 41 52 52 87 91 50 40 14 8 37 83 86 70 66 78 95 87 78 82 79 72 64 54 54 52 52 54 60 56 55 59 54 48 49 50 67 85 84 66 61 67 59 52 57 70 80
37 41 58 55 84 99 58 44 19 10 32 81 84 89 76 82 95 77 81 81 71 76 62 54 53 49 50 54 53 60 60 61 59 57 54 47 58 62 60 72 69 86 68 57 76 85 54
36 37 63 63 61 94 74 59 32 13 42 82 89 93 93 94 78 76 75 73 71 67 64 58 51 50 49 55 58 60 63 61 60 63 55 51 89 72 61 62 78 71 69 67 82 64 76
34 43 68 65 65 84 92 83 70 22 28 86 98 98 97 85 82 72 73 72 73 74 77 58 54 60 54 52 48 58 58 56 55 56 53 56 92 81 78 63 68 78 62 64 62 57 58
40 64 78 71 58 79 90 84 88 68 33 78 91 98 99 84 74 69 70 67 69 74 80 72 60 58 60 64 68 56 55 50 50 54 57 58 75 77 74 66 66 73 62 60 59 57 55
53 99 92 89 79 65 79 81 90 82 70 67 86 98 99 83 77 72 75 74 79 70 68 79 73 59 67 65 65 59 58 57 55 58 52 60 66 70 75 67 80 50 51 50 54 53 52
68 94 94 87 84 88 74 87 77 79 78 73 75 98 99 96 82 72 84 76 75 83 78 81 91 81 77 74 59 62 68 60 68 67 56 48 60 79 79 72 56 51 61 61 61 55 44
72 83 83 84 84 88 84 77 86 84 85 76 79 85 95 99 72 90 86 88 68 69 72 84 86 81 76 68 66 65 71 65 75 79 68 63 55 64 79 77 59 57 59 58 51 90 54
77 85 77 83 84 89 78 69 92 96 81 88 89 83 83 98 87 97 98 89 78 70 67 75 78 76 71 70 72 67 64 58 75 76 81 78 79 78 68 67 53 41 43 62 96 81 60
92 94 97 87 84 87 73 89 93 91 73 87 90 96 86 92 78 86 87 99 96 82 67 78 72 74 75 74 73 72 69 66 66 63 63 64 69 79 71 73 74 46 64 74 68 59 61
85 78 83 83 86 84 78 81 97 86 81 84 98 95 92 93 95 88 90 96 99 100 98 87 66 68 65 72 72 74 72 74 65 70 63 67 54 58 54 51 43 54 54 57 65 67 67

GFSGBSN_850_rhum_057.txt.gz
RH
95 95 94 93 93 98 98 98 98 94 94 95 97 82 81 78 76 74 76 70 71 74 68 74 75 76 89 88 65 63 85 74 92 94 70 71 58 65 59 50 42 40 28 28 34 43 39
86 94 93 97 95 97 99 100 92 94 89 88 88 86 85 83 80 75 76 73 67 74 75 72 72 73 87 72 53 52 89 98 95 98 68 62 56 58 54 50 42 39 37 34 33 40 42
73 92 94 96 94 93 98 99 98 97 95 85 84 83 83 86 88 80 78 75 74 81 73 70 78 89 85 64 57 80 72 92 91 91 69 59 55 53 53 53 47 43 42 36 33 35 36
70 70 94 93 93 89 91 99 94 97 90 84 88 97 94 81 90 85 74 82 70 71 70 78 72 98 80 62 62 66 91 85 93 96 70 61 65 50 53 51 51 48 42 51 34 35 33
59 56 80 94 93 92 96 98 99 91 88 79 85 84 90 82 84 76 77 69 65 68 65 71 87 91 57 62 60 63 91 95 84 93 69 68 82 56 54 55 59 50 47 39 31 28 34
41 51 75 89 92 92 93 98 96 92 87 88 83 81 87 82 84 76 64 74 80 65 78 94 91 80 59 50 63 82 89 89 89 83 74 87 83 76 58 53 60 48 42 28 28 39 32
33 40 66 70 85 92 92 99 99 98 97 97 97 81 84 85 84 72 81 91 81 84 83 62 61 55 68 90 94 84 95 85 96 68 76 90 93 92 56 37 29 26 31 24 25 37 38
30 28 60 61 69 91 85 96 100 97 98 96 92 81 88 80 72 69 85 75 86 94 68 63 65 63 65 94 97 94 94 66 92 68 56 95 96 64 41 34 33 36 32 32 34 38 38
32 29 48 42 47 87 75 88 98 99 96 98 94 80 83 82 67 90 93 84 82 87 75 60 72 70 85 99 99 93 94 84 75 56 69 71 75 71 73 46 42 37 40 33 39 45 38
32 37 45 42 42 69 63 88 82 94 80 90 82 66 64 76 93 98 92 77 86 98 88 66 86 94 95 98 90 90 96 93 76 70 76 82 63 80 76 53 39 43 31 34 47 46 36
34 37 41 43 43 43 73 63 59 85 57 58 57 63 65 59 95 92 97 86 92 96 92 81 92 94 90 98 93 96 82 92 87 94 86 94 78 89 61 51 38 39 44 47 48 48 48
32 32 40 41 39 34 65 23 25 14 44 60 52 57 66 98 94 76 82 92 94 97 94 100 95 96 90 80 82 99 95 85 74 84 85 93 94 89 65 68 47 49 49 49 48 51 68
32 29 41 39 41 44 46 14 18 6 10 47 64 49 65 75 88 82 95 98 96 90 93 100 99 81 57 65 76 85 92 91 93 100 100 99 98 89 80 82 62 52 60 88 88 86 59
31 28 42 37 44 41 46 53 10 7 6 37 56 53 64 85 98 98 97 91 89 84 100 87 94 70 91 73 74 74 77 74 58 69 100 100 100 98 91 84 93 74 58 67 64 64 50
32 29 41 40 44 48 47 53 21 7 6 33 51 56 75 96 82 99 95 96 91 95 96 99 63 85 77 60 73 83 63 60 57 55 89 95 99 93 86 82 71 88 76 46 48 44 44
33 29 39 45 48 47 47 46 31 8 7 39 49 54 82 80 76 100 87 93 96 87 81 70 69 58 61 60 63 65 52 49 55 46 42 60 94 69 68 68 59 64 46 69 78 64 43
33 30 40 51 51 50 46 44 35 9 7 41 62 70 68 72 79 75 99 93 87 71 73 65 54 55 52 54 49 49 51 52 44 45 40 45 53 80 55 59 56 54 57 51 49 46 35
30 32 40 54 57 61 49 42 34 13 7 30 88 91 64 69 79 65 69 68 76 62 68 61 48 46 46 47 50 46 50 46 45 39 44 47 54 77 70 50 47 46 45 42 63 58 53
28 34 42 54 60 76 59 45 40 18 20 60 100 75 63 75 86 74 69 67 64 56 52 48 48 46 44 46 53 46 47 52 48 42 43 42 62 83 78 58 53 60 49 43 47 71 78
25 31 40 62 60 86 74 58 53 23 16 70 87 87 76 73 76 60 62 68 58 67 50 47 45 43 44 45 42 52 53 53 52 48 50 42 50 60 61 78 61 76 58 51 76 85 47
25 29 46 61 66 67 81 74 63 27 24 90 82 82 92 85 63 63 59 56 53 53 50 47 45 43 42 48 46 48 50 54 52 54 47 44 88 69 55 53 79 70 63 62 91 61 74
27 32 48 67 81 60 75 76 76 43 24 83 91 96 88 82 68 62 62 53 57 57 56 48 47 45 41 42 41 47 47 44 45 48 45 50 87 76 80 54 59 72 55 56 58 54 48
30 40 86 91 83 79 75 78 80 66 30 80 86 98 99 79 60 60 62 58 57 60 64 59 45 44 44 54 52 44 42 39 40 44 48 52 68 76 69 58 58 67 54 52 52 48 48
35 76 90 85 85 80 87 77 79 81 74 89 92 98 99 74 68 64 64 64 65 61 62 62 59 49 60 58 50 46 45 46 45 46 42 53 58 59 68 60 79 57 45 41 46 44 43
48 75 84 81 84 80 91 80 77 86 80 91 93 92 99 81 63 62 68 73 66 70 65 65 75 60 64 59 53 56 57 53 56 51 46 41 48 64 70 61 48 39 50 54 54 51 40
59 80 86 78 80 80 88 78 72 91 88 94 93 76 95 93 59 86 79 83 76 60 67 76 87 82 77 57 58 66 66 53 61 69 55 52 47 60 66 72 59 57 53 45 45 68 41
71 92 92 79 85 81 85 77 96 93 89 81 95 85 96 86 65 95 92 98 85 65 65 68 72 75 69 66 75 67 58 48 63 59 70 67 66 72 63 65 48 36 52 56 88 85 54
74 94 84 84 86 82 84 82 82 96 82 90 98 82 94 88 76 78 83 98 98 85 71 67 69 70 68 74 69 60 57 51 52 47 52 60 63 63 59 72 71 38 46 66 68 59 59
78 80 85 85 84 84 89 59 57 90 80 81 97 90 97 99 83 79 85 98 97 100 100 80 65 54 52 61 63 62 64 58 48 59 48 57 45 50 47 49 42 52 55 62 64 63 68

GFSGBSN_850_rhum_060.txt.gz
RH
59 60 77 92 94 98 90 99 98 99 97 95 86 89 81 84 80 81 79 71 72 72 81 72 71 72 78 93 80 54 62 60 64 87 86 77 59 70 68 56 47 48 36 32 30 40 37
37 39 68 85 98 91 97 94 92 97 90 91 88 87 87 88 79 81 87 69 73 73 76 74 76 72 79 78 61 55 57 80 93 89 80 72 56 60 55 49 49 42 40 34 32 42 39
32 34 58 78 95 94 92 98 99 96 93 90 96 89 92 88 82 81 90 74 80 81 77 73 67 80 92 74 55 59 53 65 100 95 92 65 56 50 56 56 50 40 44 44 34 40 40
29 29 43 81 83 93 94 98 98 92 88 94 99 95 84 99 87 82 83 65 76 69 66 65 78 96 86 60 53 62 69 73 94 100 96 61 54 50 51 52 54 49 47 59 38 37 38
30 28 43 52 84 95 94 98 98 98 92 86 94 86 88 84 81 81 64 56 57 54 58 64 90 90 69 55 62 60 58 64 77 88 82 61 56 62 52 64 74 64 62 57 46 34 36
31 29 39 41 76 98 91 93 99 96 97 87 83 84 83 81 79 73 61 68 69 62 80 94 92 90 70 53 64 60 55 62 82 86 85 75 68 80 68 76 86 69 73 46 46 37 37
32 29 37 41 61 99 93 89 94 99 96 96 85 84 82 68 61 56 77 87 83 90 82 68 67 67 61 68 64 72 75 70 98 100 88 69 85 87 74 59 45 41 48 49 34 36 39
30 29 32 43 52 89 81 78 76 95 90 69 54 88 68 72 68 86 87 74 82 87 72 62 58 59 60 71 91 84 87 96 99 92 69 85 89 64 54 48 45 36 39 42 30 40 42
30 28 31 41 51 78 55 51 72 80 73 64 49 58 58 67 84 87 83 95 79 92 76 59 71 72 77 82 96 88 97 95 96 89 73 78 66 57 57 50 46 40 44 36 41 44 39
29 26 32 40 49 58 48 30 30 56 20 47 57 53 59 68 86 86 87 74 87 98 98 77 81 99 99 94 89 97 88 86 92 67 62 85 71 71 80 69 42 48 34 33 46 55 57
26 26 30 38 45 62 54 50 24 12 10 25 58 50 61 86 86 87 84 75 90 98 94 81 91 95 94 99 92 94 90 78 86 85 78 93 86 80 94 73 44 40 36 48 51 56 52
25 25 29 37 40 60 75 54 49 12 7 13 51 59 49 90 96 91 90 90 96 100 96 100 97 93 96 90 85 90 92 85 72 82 82 94 80 80 82 82 76 44 53 53 50 57 88
25 25 29 38 39 48 58 51 49 26 7 10 49 50 56 76 95 90 97 95 100 94 90 99 100 94 94 88 87 86 93 86 89 97 100 97 96 87 93 87 63 56 67 86 94 96 84
26 26 28 36 41 45 46 55 44 33 8 9 48 52 68 79 93 97 90 99 90 82 100 93 84 70 86 86 95 90 83 83 71 81 99 99 100 97 93 82 82 64 65 89 73 92 70
25 27 27 37 43 46 47 47 44 40 13 8 49 66 77 87 78 96 99 94 87 90 93 98 65 70 76 63 70 86 74 70 80 80 98 100 100 94 90 78 76 86 96 48 64 42 78
25 26 28 37 43 45 49 50 44 39 21 12 47 73 80 72 79 95 93 87 99 83 75 70 65 51 64 61 63 67 60 50 55 46 47 68 98 96 92 80 79 78 57 73 94 70 66
29 23 28 35 45 47 54 56 48 43 26 18 75 74 74 68 77 92 95 85 84 66 65 71 53 50 49 52 46 49 54 51 41 45 42 53 71 98 92 97 98 93 96 64 62 57 65
31 22 25 32 44 53 61 61 59 42 17 20 90 82 66 76 90 71 71 62 72 57 62 61 51 42 44 44 46 48 56 52 42 39 50 50 67 94 73 51 52 62 55 62 94 72 71
26 22 24 35 48 58 66 66 60 35 21 64 99 76 71 79 83 71 67 61 59 53 50 49 48 46 45 44 54 48 56 50 46 49 51 48 74 93 78 63 53 62 52 48 65 82 86
22 23 26 40 59 60 79 61 63 29 36 94 88 89 82 73 67 66 62 68 60 64 50 45 44 43 43 45 43 52 58 52 51 50 46 44 56 73 87 82 74 82 63 56 84 92 71
25 26 26 49 79 74 70 70 68 39 52 80 78 86 89 93 73 66 58 52 52 53 51 45 45 43 42 49 46 48 55 58 52 48 47 55 84 78 58 65 94 80 67 66 90 74 74
30 28 38 79 82 80 87 73 72 64 38 74 78 93 86 79 73 64 63 51 54 51 54 47 48 42 39 47 50 50 49 51 52 50 48 56 86 82 86 54 64 76 62 64 65 64 60
31 38 73 82 81 81 83 82 72 75 46 76 81 87 97 72 66 60 75 64 64 59 59 56 56 45 44 58 48 41 42 39 41 51 53 62 82 88 86 58 60 80 62 59 62 56 58
47 55 75 85 78 78 80 82 73 83 76 90 89 98 93 75 69 75 65 61 64 61 67 58 59 54 58 50 47 43 42 43 43 46 43 57 66 74 89 70 93 62 46 46 53 52 49
59 63 79 82 84 82 76 81 70 80 78 86 93 92 89 78 55 51 71 67 69 60 70 63 73 58 59 55 54 56 62 53 57 47 48 46 58 72 89 88 60 58 52 54 55 56 46
65 66 88 91 81 84 79 83 88 89 85 78 93 81 95 85 65 60 79 76 84 77 72 77 76 66 72 67 71 76 78 56 66 74 53 52 51 70 79 84 78 68 51 43 43 74 44
67 72 85 84 84 81 78 86 75 90 92 81 90 88 88 80 66 71 81 98 100 85 87 71 78 77 71 74 84 84 68 45 66 68 80 72 68 83 73 79 64 60 55 50 84 86 56
70 73 80 82 85 80 88 81 56 63 98 81 78 86 88 90 78 74 73 77 87 100 97 81 74 73 75 80 81 72 68 59 55 46 57 68 76 76 72 82 84 46 48 68 71 60 59
79 76 82 83 84 78 80 70 84 82 90 96 88 80 90 100 81 68 65 70 76 92 99 99 90 63 61 73 73 71 71 65 59 66 48 64 54 56 58 64 47 47 62 62 61 63 68

GFSGBSN_850_rhum_063.txt.gz
RH
31 32 56 95 99 94 92 99 99 99 99 92 94 93 94 88 94 81 81 85 80 75 72 69 66 72 76 82 69 68 64 82 68 67 83 92 78 86 86 73 57 62 44 41 41 38 34
31 30 49 94 92 97 97 95 99 98 86 93 95 100 91 96 99 88 78 84 79 75 69 80 75 76 81 92 50 60 61 68 73 87 80 86 70 73 71 66 62 49 48 45 40 40 37
31 28 40 84 96 96 97 91 98 99 94 96 94 99 84 90 83 79 77 84 72 75 75 71 66 80 89 61 61 76 72 65 81 85 85 74 62 64 57 58 54 51 54 46 46 45 42
30 28 38 59 84 97 97 93 100 99 99 98 97 96 88 77 76 74 69 50 66 58 54 62 82 79 86 47 53 63 65 72 68 88 98 71 63 58 58 53 59 55 54 70 46 45 42
29 29 32 48 75 90 99 94 92 100 97 98 98 92 79 65 71 60 52 49 44 48 54 61 84 79 77 62 61 51 60 63 76 99 85 71 70 61 54 72 86 79 76 72 50 42 46
29 28 29 41 70 78 92 91 94 90 97 73 89 72 65 53 57 66 77 70 62 61 84 92 89 92 66 68 62 60 54 60 71 86 92 87 72 80 76 88 86 88 74 66 59 46 44
28 27 28 43 67 56 71 72 81 96 97 66 56 59 58 67 57 70 72 74 74 84 84 71 68 64 68 65 55 52 61 68 82 97 97 77 88 90 71 69 57 68 61 55 51 39 44
26 26 27 40 61 44 71 83 70 84 81 82 58 53 58 66 82 83 71 72 81 90 90 59 64 59 61 59 67 76 88 69 91 97 90 93 89 70 62 62 63 53 62 60 41 39 42
25 25 26 36 49 49 56 60 66 62 46 40 41 55 58 68 78 73 78 69 74 92 88 68 74 79 78 75 79 91 84 93 95 99 85 84 71 62 65 65 66 61 52 52 48 46 43
24 25 25 34 38 64 47 55 58 60 16 12 23 62 51 73 82 85 82 76 79 87 100 99 96 94 96 84 88 90 66 94 96 93 83 82 68 68 69 65 59 70 40 39 53 58 66
26 26 24 31 34 33 52 46 47 54 26 9 19 56 51 84 87 86 83 82 95 91 96 90 92 87 97 94 94 96 90 96 96 86 75 96 84 87 82 70 63 54 36 54 55 57 56
28 26 26 26 31 35 43 52 47 43 32 10 30 51 55 78 91 93 91 83 97 95 96 99 97 96 96 94 93 89 94 95 79 82 82 95 82 82 78 78 81 72 55 60 62 67 90
30 26 26 23 31 35 42 48 47 44 37 18 25 50 64 72 90 96 93 90 89 96 78 99 100 87 87 86 82 80 90 87 89 95 98 98 96 85 86 79 78 75 69 95 93 94 89
34 28 25 23 31 34 45 50 50 45 40 21 22 54 73 76 87 92 95 93 91 82 99 80 87 77 92 91 94 87 85 94 78 86 94 88 100 97 89 88 92 83 62 87 85 98 85
33 34 22 22 27 30 42 53 51 49 40 21 31 57 73 75 82 90 98 95 84 92 86 92 75 80 77 80 89 83 80 90 80 82 91 90 94 91 88 89 84 91 86 56 67 55 83
34 36 20 22 23 34 48 56 54 49 38 18 52 74 80 77 84 89 90 93 98 87 77 76 90 65 66 71 79 83 65 62 81 77 72 86 97 93 91 94 82 83 63 73 90 62 76
45 28 21 24 24 40 52 57 54 39 32 18 77 84 79 75 89 96 92 86 86 73 72 74 70 53 53 56 54 60 66 52 48 53 56 67 78 99 94 98 96 84 88 72 70 70 66
45 24 24 24 27 47 58 56 57 27 21 18 78 90 74 79 88 84 86 72 64 60 66 71 59 54 47 48 58 66 68 59 46 44 59 56 77 99 99 77 74 82 79 66 87 76 74
36 26 27 24 34 58 63 60 58 27 45 70 97 85 77 86 79 77 72 70 70 60 55 54 52 50 47 49 59 58 66 52 50 56 53 53 80 96 96 73 69 94 82 71 64 82 84
34 30 28 35 66 74 71 64 58 35 48 70 81 93 72 74 70 76 72 69 77 61 58 48 47 46 46 48 49 61 65 56 51 49 50 48 67 73 83 73 75 83 73 60 72 84 68
35 33 39 63 74 74 74 70 64 50 39 44 71 86 84 96 79 85 77 62 61 65 58 47 50 47 48 54 52 67 63 61 53 46 49 62 80 74 66 78 86 76 69 73 79 66 72
38 46 62 70 71 72 77 72 65 63 39 32 84 90 82 78 73 83 72 66 64 61 58 59 57 45 52 66 58 57 60 61 62 51 53 64 90 78 84 65 69 69 68 70 68 64 66
48 58 66 74 73 75 72 72 65 72 50 58 65 76 90 76 72 80 84 70 68 69 61 57 63 60 61 59 49 46 44 47 54 60 63 71 83 91 88 61 65 74 69 70 69 65 60
58 62 68 77 78 81 71 73 74 77 72 76 76 87 81 93 72 64 57 67 68 70 77 64 67 60 56 49 46 44 44 46 48 51 52 73 74 84 91 76 92 46 48 53 60 60 60
62 64 75 84 79 81 72 74 80 80 80 74 80 74 85 94 77 66 62 73 75 70 77 69 73 60 59 55 64 65 67 59 58 58 52 57 72 82 91 94 60 64 54 56 64 63 55
66 66 77 87 77 80 70 76 73 80 80 79 78 88 86 86 77 72 77 80 84 89 83 82 70 67 66 77 76 83 90 67 76 73 59 58 60 76 87 92 88 66 51 45 51 81 52
68 69 75 86 80 78 78 82 57 62 81 89 79 86 89 82 73 72 78 81 96 100 97 84 80 74 72 85 89 90 76 52 77 75 82 77 73 84 70 89 70 57 55 48 84 73 53
75 72 75 78 79 81 73 73 66 77 84 92 85 83 90 95 81 68 70 70 76 88 100 98 87 78 83 86 90 83 80 66 62 59 71 72 75 78 76 86 86 57 52 74 71 62 61
86 77 78 78 77 84 72 73 67 76 87 95 95 96 98 100 79 71 77 78 74 73 77 99 100 90 83 81 83 79 78 76 71 77 54 67 61 55 70 72 49 46 56 63 62 62 63

GFSGBSN_850_rhum_066.txt.gz
RH
30 40 73 99 98 95 99 95 98 98 100 99 97 98 98 100 96 99 85 72 87 84 70 71 66 68 81 88 75 60 68 67 74 71 97 97 82 77 87 76 71 71 53 51 51 55 54
30 37 64 98 91 81 100 98 95 98 100 98 100 99 96 75 72 76 75 83 88 68 67 74 79 72 74 93 52 64 82 70 81 76 89 86 85 77 71 71 70 62 56 48 58 47 51
30 32 50 87 78 70 100 99 94 99 99 99 99 97 84 65 64 70 80 80 67 63 68 75 61 70 75 60 63 74 72 76 84 82 89 80 77 72 62 67 63 55 62 60 57 47 44
29 30 31 65 79 73 99 98 93 96 100 100 99 97 88 48 57 52 53 54 64 56 58 62 76 80 72 60 64 68 79 77 80 82 81 78 79 58 64 61 69 69 62 81 51 48 42
29 28 28 48 68 88 99 86 81 95 98 100 81 90 82 52 52 71 78 67 49 48 52 63 78 82 61 61 65 66 67 69 72 81 88 94 94 68 64 74 88 85 83 75 58 48 48
30 28 26 38 51 62 61 87 98 98 95 99 88 49 68 61 61 70 79 78 63 74 82 89 86 90 62 65 60 56 56 66 74 96 99 99 91 85 78 87 89 78 76 70 60 51 52
30 28 25 30 39 55 48 81 86 99 98 85 80 59 56 57 73 77 61 74 80 84 85 79 74 66 67 61 51 69 62 71 74 95 96 97 92 88 78 70 64 67 62 65 56 45 50
30 28 25 28 34 52 48 45 74 98 100 70 59 68 50 61 69 65 59 73 75 79 77 61 66 73 68 64 65 80 69 72 85 98 94 99 89 68 68 67 64 66 66 65 46 44 47
31 29 26 27 30 43 37 38 60 85 82 35 14 59 52 65 71 77 77 66 78 85 88 85 95 81 76 74 71 87 77 87 91 98 97 87 77 64 66 74 76 67 68 63 52 48 43
35 31 27 27 27 34 35 35 46 51 53 31 12 41 53 71 80 85 87 69 85 86 95 100 97 85 93 86 89 84 78 87 93 97 96 82 69 71 76 77 68 75 48 49 52 60 74
40 35 29 27 24 33 31 36 45 46 44 37 14 36 54 74 77 84 87 87 98 92 96 94 94 91 92 98 92 86 74 92 91 93 97 97 80 79 81 72 56 60 43 50 58 63 57
45 37 33 24 23 31 30 42 47 46 44 38 16 39 61 74 88 89 93 91 98 92 95 99 95 96 92 89 90 92 96 95 83 92 85 92 84 85 79 84 74 71 58 63 66 70 88
48 38 38 22 24 27 31 43 48 44 43 37 17 50 66 71 87 98 94 93 89 94 79 98 100 87 92 100 94 88 94 96 96 99 99 96 94 86 84 78 71 69 69 96 94 98 91
51 39 39 22 26 24 36 46 48 44 38 33 22 54 69 78 92 99 96 90 88 77 96 80 87 88 97 90 92 92 96 98 82 79 95 92 98 95 86 84 86 82 62 88 87 94 82
54 44 32 26 26 26 40 51 48 42 30 25 43 59 68 75 86 97 92 95 84 88 83 92 76 85 100 90 91 90 79 91 84 78 86 94 98 90 85 82 86 94 93 60 69 69 86
47 48 27 28 26 30 46 53 49 36 27 22 63 74 68 73 79 97 88 94 95 82 79 83 87 63 91 93 84 79 74 73 82 76 67 82 98 85 87 86 87 92 66 74 90 71 81
54 40 29 30 27 38 53 52 52 34 29 27 76 78 75 81 89 84 93 90 86 72 75 77 78 59 57 61 72 69 69 55 58 74 69 76 78 94 91 97 98 96 86 74 69 69 70
55 34 32 31 38 54 59 52 50 35 30 48 74 91 83 90 86 88 85 74 66 63 70 78 75 60 53 54 61 73 71 61 50 53 77 66 82 96 90 82 77 82 80 65 87 75 76
48 36 35 43 56 59 58 54 52 40 37 58 80 83 82 96 92 88 76 72 74 64 62 60 58 52 49 51 65 68 66 56 53 52 61 60 85 98 97 82 82 97 88 78 71 81 86
44 38 47 56 60 58 57 54 53 43 35 59 76 91 68 74 75 83 88 76 79 62 64 51 52 47 49 52 55 67 65 58 51 48 54 53 72 73 84 70 81 88 91 78 80 90 82
41 48 57 60 62 62 58 58 51 45 32 51 68 90 82 98 85 81 81 74 63 72 63 51 54 49 52 54 57 69 66 62 54 48 55 57 80 75 72 78 82 74 86 78 82 75 82
45 58 60 67 70 70 60 58 60 47 26 28 82 89 80 82 75 86 76 77 75 72 62 63 60 70 54 60 54 68 65 66 63 52 57 69 89 76 82 70 64 65 72 75 68 61 63
54 61 64 73 73 72 63 67 67 63 42 35 52 86 87 77 70 80 76 68 72 73 63 60 64 66 61 58 50 48 48 49 52 60 67 69 85 87 82 65 66 73 69 71 69 65 58
58 62 68 77 73 70 65 70 71 72 68 64 62 64 80 82 80 67 61 64 74 72 81 70 69 62 57 53 50 48 49 51 53 56 58 76 75 84 94 72 78 44 50 54 63 64 63
61 64 71 77 73 69 67 72 76 78 77 71 66 59 80 92 86 75 73 67 71 67 76 74 72 62 62 54 68 72 76 62 60 62 58 63 78 85 93 94 65 58 56 62 68 64 62
65 66 71 76 73 68 70 79 64 64 80 79 75 73 76 87 83 73 78 84 91 98 91 78 77 66 67 79 77 84 93 74 83 75 62 62 67 76 92 92 90 60 53 47 52 79 56
68 70 71 73 72 70 68 75 87 90 84 86 85 80 80 87 66 75 72 76 66 98 96 98 95 75 73 87 90 96 80 60 85 82 82 74 74 82 83 91 77 52 55 51 81 69 60
76 76 72 74 70 77 72 74 70 88 91 94 88 94 94 96 88 74 70 68 80 75 86 99 96 88 85 86 91 89 85 72 69 68 78 79 83 82 76 82 88 57 58 72 68 65 56
83 84 76 80 76 80 83 76 97 89 90 92 99 99 99 98 86 77 79 78 80 77 73 82 100 98 98 85 88 83 84 83 75 79 59 72 60 68 72 72 48 54 51 54 62 62 63